Calls for Service

Disclaimer: This information is not intended to be used as official crime data. This program does not provide information about all crimes, and excludes specific incidents such as sexual assaults and child abuse. The City of Conway Police Department makes every effort to produce and publish current and accurate information. No warranties, expressed or implied, are provided for the data herein, its use, or its interpretation. The services provided are for informational purposes only and should not be relied on for any type of legal action.

Loading calls...
Showing calls from previous 10 days
Call Number Case Number Address Call Time Incident Type
19-0903017 1750 S SALEM RD 2019-09-17 17:18:16.723 REPOSSESSION
19-0903015 3100 IRBY DR 2019-09-17 17:07:26.330 DOMESTIC DISTURBANCE
19-0903014 2425 SANDERS ST 2019-09-17 17:03:27.870 HARASSMENT
19-0903012 1485 GARDENIA 2019-09-17 16:49:01.550 UNKNOWN TROUBLE
19-0903011 19-10336 2100 DAVE WARD DR 2019-09-17 16:46:38.347 ACCIDENT - PROPERTY DAMAGE
19-0903010 2450 GIBBY DR 2019-09-17 16:43:40.463 ATTEMPT TO CONTACT
19-0903009 19-10335 200 CONWAY BLVD 2019-09-17 16:37:07.810 ACCIDENT - PROPERTY DAMAGE
19-0903008 1121 CLIFTON ST 2019-09-17 16:15:23.607 RECKLESS DRIVER
19-0903007 116 S BARIDON ST 2019-09-17 16:10:28.913 SUPPLEMENT REPORT CALL
19-0903006 1860 HUDSON LP 2019-09-17 16:06:11.363 SERVING SUBPOENA
19-0903005 1405 ROBINS ST 2019-09-17 16:02:58.460 MISSING PERSON
19-0903004 1301 BELLEMEADE DR 2019-09-17 16:01:54.760 911 HANGUP CALL
19-0903002 19-10332 402 HARKRIDER ST 2019-09-17 15:57:27.640 ACCIDENT - PROPERTY DAMAGE
19-0903000 2115 SPRUCEWOOD DR 2019-09-17 15:56:47.460 ALARM
19-0902999 4629 OLD MORRILTON HWY 2019-09-17 15:56:24.760 SERVING SUBPOENA
19-0902998 19-10333 541 GROVE ST 2019-09-17 15:43:04.493 HARASSING COMMUNICATIONS
19-0902997 19-10331 2010 RICH SMITH LN 2019-09-17 15:20:03.990 SUPPLEMENT REPORT CALL
19-0902996 2501 DAVE WARD DR 2019-09-17 15:15:01.357 RECKLESS DRIVER
19-0902995 621 OAK ST 2019-09-17 14:59:36.530 FRAUD
19-0902993 19-10329 4101 TYLER ST 2019-09-17 14:53:51.353 ACCIDENT - PROPERTY DAMAGE
19-0902992 116 OAK ST 2019-09-17 14:50:32.723 SUPPLEMENT REPORT CALL
19-0902989 19-10328 1052 HARRISON ST 2019-09-17 14:29:07.170 ACCIDENT - PRIVATE PROPERTY
19-0902988 3900 DAVE WARD DR 2019-09-17 14:23:18.650 CHECK ON THE WELFARE
19-0902987 806 FAULKNER ST 2019-09-17 14:21:34.620 ATTEMPT TO CONTACT
19-0902983 1905 RICH SMITH LN 2019-09-17 13:54:57.453 BREAKING OR ENTERING
19-0902982 1346 STURGIS RD 2019-09-17 13:47:55.567 911 HANGUP CALL
19-0902980 19-10327 1709 DONAGHEY AV 2019-09-17 13:35:33.357 THEFT OF PROPERTY
19-0902979 130 I40EB 2019-09-17 13:22:53.257 AGENCY ASSIST
19-0902977 841 DONAGHEY AV 2019-09-17 12:50:59.640 911 HANGUP CALL
19-0902975 1057 HARKRIDER ST 2019-09-17 12:27:45.793 DISTURBANCE
19-0902974 2799 SALEM RD 2019-09-17 12:27:20.923 DOMESTIC DISTURBANCE
19-0902972 1045 BURROW AV 2019-09-17 12:23:21.250 CIVIL MATTER
19-0902971 19-10325 1014 HARKRIDER ST 2019-09-17 12:20:47.827 LOST PROPERTY
19-0902969 19-10322 1405 E OAK ST 2019-09-17 12:14:28.070 THEFT OF IDENTITY
19-0902968 19-10323 1601 S DONAGHEY AV 2019-09-17 12:12:03.237 HARASSING COMMUNICATIONS
19-0902967 2715 PRINCE ST 2019-09-17 12:10:16.770 ALARM - HOLD UP or PANIC
19-0902965 1900 CALDWELL ST 2019-09-17 12:01:11.180 RUNAWAY
19-0902964 1075 S HARKRIDER DR 2019-09-17 12:01:01.280 911 HANGUP CALL
19-0902963 2950 BECKY RD 2019-09-17 12:00:00.890 REPOSSESSION
19-0902962 1225 WOODSIDE DR 2019-09-17 11:55:40.433 SUSPICIOUS PERSON
19-0902959 695 EXCHANGE AV 2019-09-17 11:52:31.580 SUSPICIOUS PERSON
19-0902955 1274 SUTTON ST 2019-09-17 11:42:39.440 ABANDONED VEHICLE
19-0902952 380 HARKRIDER ST 2019-09-17 11:28:53.217 ATTEMPT TO CONTACT
19-0902949 350 E OAK ST 2019-09-17 11:20:47.070 AGENCY ASSIST
19-0902947 5600 GRAND TETON LN 2019-09-17 11:18:34.610 ABANDONED VEHICLE
19-0902946 19-10321 1260 S AMITY RD 2019-09-17 11:17:34.320 ACCIDENT - PRIVATE PROPERTY
19-0902945 600 ELSINGER BLVD 2019-09-17 11:16:33.163 SUPPLEMENT REPORT CALL
19-0902939 1337 COLLEGE AV 2019-09-17 10:48:53.280 SUPPLEMENT REPORT CALL
19-0902937 116 OAK ST 2019-09-17 10:36:04.117 SUPPLEMENT REPORT CALL
19-0902935 19-10319 2010 RICH SMITH LN 2019-09-17 10:29:10.510 BREAKING OR ENTERING
19-0902931 801 SOUTH GERMAN LN 2019-09-17 10:19:18.753 CHECK ON THE WELFARE
19-0902930 1405 E OAK ST 2019-09-17 10:15:31.167 FRAUD
19-0902929 15 NEEDS CREEK 2019-09-17 10:14:03.927 ATTEMPT TO CONTACT
19-0902926 2350 LINDA DR 2019-09-17 10:08:55.690 SUSPICIOUS VEHICLE
19-0902924 831 NUTTERS CHAPEL RD 2019-09-17 10:02:28.087 SUPPLEMENT REPORT CALL
19-0902920 19-10317 221 EAST GERMAN LN 2019-09-17 09:58:08.013 BURGLARY
19-0902918 500 HWY 64 E 2019-09-17 09:47:05.163 ATTEMPT TO CONTACT
19-0902916 2215 LINDA DR 2019-09-17 09:40:25.800 SUSPICIOUS PERSON
19-0902914 19-10315 1105 PRAIRIE ST 2019-09-17 09:35:45.527 FORGERY
19-0902913 2420 BROADVIEW AV 2019-09-17 09:22:15.353 SUSPICIOUS PERSON
19-0902912 19-10313 831 NUTTERS CHAPEL RD 2019-09-17 09:11:16.327 BREAKING OR ENTERING
19-0902910 19-10312 3180 COLLEGE AV 2019-09-17 08:59:14.350 ACCIDENT - PROPERTY DAMAGE
19-0902908 19-10311 3330 PEBBLE BEACH DR 2019-09-17 08:45:25.167 BREAKING OR ENTERING
19-0902907 3900 DAVE WARD DR 2019-09-17 08:38:46.483 CHECK ON THE WELFARE
19-0902906 2004 MICHELLE CIR 2019-09-17 08:36:39.393 ALARM
19-0902905 2019-09-17 08:30:17.333 RECOVERED PROPERTY
19-0902904 3895 FRIENDSHIP RD 2019-09-17 08:27:15.007 SUPPLEMENT REPORT CALL
19-0902902 1105 PRAIRIE ST 2019-09-17 08:25:21.220 SERVING SUBPOENA
19-0902901 19-10310 1701 SALEM RD 2019-09-17 08:23:30.077 ACCIDENT - PROPERTY DAMAGE
19-0902900 2010 RICH SMITH LN 2019-09-17 08:22:48.070 BREAKING OR ENTERING
19-0902899 600 E DAVE WARD DR 2019-09-17 08:22:02.597 ACCIDENT - PROPERTY DAMAGE
19-0902896 1230 CLIFTON ST 2019-09-17 08:07:10.710 ATTEMPT TO CONTACT
19-0902895 2145 REMINGTON RD 2019-09-17 08:00:21.980 ATTEMPT TO CONTACT
19-0902894 501 DONAGHEY AV 2019-09-17 07:59:29.473 ACCIDENT - PROPERTY DAMAGE
19-0902892 2425 DAVE WARD DR 2019-09-17 07:33:23.087 ALARM
19-0902891 810 MERRIMAN ST 2019-09-17 07:33:08.190 ALARM
19-0902889 19-10308 1775 OLD MORRILTON HWY 2019-09-17 07:31:13.900 ACCIDENT - PRIVATE PROPERTY
19-0902888 2010 RICH SMITH LN 2019-09-17 07:24:51.310 SUPPLEMENT REPORT CALL
19-0902886 19-10306 1985 RICH SMITH LN 2019-09-17 07:15:41.070 BREAKING OR ENTERING
19-0902885 I40 MM 73 2019-09-17 07:14:30.647 STALLED VEHICLE
19-0902884 475 ROBINS ST 2019-09-17 06:55:20.193 DISTURBANCE
19-0902883 19-10307 116 S BARIDON ST 2019-09-17 06:54:01.377 BREAKING OR ENTERING
19-0902882 2725 COLLEGE AV 2019-09-17 06:48:46.180 ALARM
19-0902881 19-10304 1930 RICH SMITH LN 2019-09-17 06:47:38.130 BREAKING OR ENTERING
19-0902880 405 OAK ST 2019-09-17 06:44:23.960 DISTURBANCE
19-0902879 19-10305 1930 RICH SMITH LN 2019-09-17 06:30:59.010 BREAKING OR ENTERING
19-0902878 19-10302 1930 RICH SMITH LN 2019-09-17 05:57:22.880 BREAKING OR ENTERING
19-0902877 19-10303 1930 RICH SMITH LN 2019-09-17 05:40:50.350 BREAKING OR ENTERING
19-0902876 2300 PRINCE ST 2019-09-17 04:52:56.267 OPEN DOOR/WINDOW/FENCE
19-0902875 4215 TREE HOUSE DR 2019-09-17 04:09:12.040 ATTEMPT TO CONTACT
19-0902874 4205 TREE HOUSE DR 2019-09-17 03:27:14.293 LOUD NOISE-MUSIC
19-0902873 2505 E OAK ST 2019-09-17 03:18:28.353 THEFT OF SERVICES
19-0902872 2550 PRINCE ST 2019-09-17 02:46:54.577 INTOXICATED PERSON
19-0902871 3900 DAVE WARD DR 2019-09-17 02:44:01.390 CHECK ON THE WELFARE
19-0902870 675 AMITY RD 2019-09-17 02:40:57.197 ALARM
19-0902869 4205 TREE HOUSE DR 2019-09-17 02:28:27.200 LOUD NOISE-MUSIC
19-0902868 3900 DAVE WARD DR 2019-09-17 02:16:36.597 SUSPICIOUS PERSON
19-0902866 2140 MATTHEWS MEADOWS LN 2019-09-17 01:33:55.720 LOG VEHICLE
19-0902864 1900 TYLER ST 2019-09-17 00:36:57.947 SUSPICIOUS ACTIVITY
19-0902863 104 CLUB LN 2019-09-17 00:33:32.063 SUSPICIOUS VEHICLE
19-0902862 19-10301 923 PARKWAY ST 2019-09-17 00:30:31.267 CHECKING PERSON
19-0902861 605 DAVE WARD DR 2019-09-17 00:21:50.883 ALARM
19-0902859 399 LOWER RIDGE RD 2019-09-17 00:06:29.627 RECKLESS DRIVER
19-0902857 1610 TYLER ST 2019-09-16 23:47:02.893 DOMESTIC DISTURBANCE
19-0902855 19-10300 1720 S SALEM RD 2019-09-16 22:59:51.920 DOMESTIC DISTURBANCE
19-0902853 2220 WIGGLE WORM RD 2019-09-16 22:49:34.643 CIVIL MATTER
19-0902852 1035 SKYLINE DR 2019-09-16 22:48:31.460 CHECKING PERSON
19-0902851 2020 ARKANSAS AV 2019-09-16 22:46:32.120 ATTEMPT TO CONTACT
19-0902850 2020 ARKANSAS AV 2019-09-16 22:42:20.100 ATTEMPT TO CONTACT
19-0902849 1105 SKYLINE DR 2019-09-16 22:27:41.743 SUSPICIOUS PERSON
19-0902848 1207 SUMMER CIR 2019-09-16 22:15:20.290 HARASSMENT
19-0902847 195 S ASH ST 2019-09-16 21:53:57.773 CITIZEN ASSIST
19-0902846 1110 COLLIER DR 2019-09-16 21:35:43.387 CHECKING VEHICLE
19-0902845 601 ELSINGER BLVD 2019-09-16 21:29:14.693 ALARM
19-0902843 705 MUSEUM RD 2019-09-16 21:19:00.940 SUSPICIOUS PERSON
19-0902842 530 S DONAGHEY AV 2019-09-16 21:05:32.553 LOUD NOISE-MUSIC
19-0902839 1648 DAVIS ST 2019-09-16 20:45:27.000 DISTURBANCE
19-0902838 19-10299 1715 TYLER ST 2019-09-16 20:42:10.357 DISTURBANCE
19-0902837 621 4TH AV 2019-09-16 20:30:48.850 REPOSSESSION
19-0902836 1637 DAVIS ST 2019-09-16 20:07:21.677 SUSPICIOUS VEHICLE
19-0902835 2300 PRINCE ST 2019-09-16 20:02:26.763 LOST CHILD-FOUND CHILD
19-0902834 19-10298 1300 TONY CIR 2019-09-16 19:51:44.170 BURGLARY
19-0902833 955 SOUTH GERMAN LN 2019-09-16 19:01:14.600 CIVIL STAND BY
19-0902830 19-10297 1155 SKYLINE DR 2019-09-16 18:51:33.120 CRIMINAL MISCHIEF
19-0902828 513 POLK ST 2019-09-16 18:39:09.890 AGENCY ASSIST
19-0902827 3900 DAVE WARD DR 2019-09-16 18:21:19.217 CHECK ON THE WELFARE
19-0902823 1155 SKYLINE DR 2019-09-16 17:54:58.970 HARASSMENT
19-0902822 150 S HOGAN LN 2019-09-16 17:52:11.763 ALARM
19-0902821 19-10295 101 OAK ST 2019-09-16 17:41:10.857 ACCIDENT - PRIVATE PROPERTY
19-0902820 1052 HARRISON ST 2019-09-16 17:39:19.970 ALARM
19-0902819 19-10294 1600 ROBINSON AV 2019-09-16 17:02:34.980 ACCIDENT - PERSONAL INJURY
19-0902818 1230 CLIFTON ST 2019-09-16 17:01:47.493 ATTEMPT TO CONTACT
19-0902817 101 OAK ST 2019-09-16 16:54:24.883 MISSING PERSON
19-0902816 1620 MIDDLE RD 2019-09-16 16:44:23.103 VEHICLE TOW
19-0902815 4101 TYLER ST 2019-09-16 16:38:35.933 SUPPLEMENT REPORT CALL
19-0902813 475 ROBINS ST 2019-09-16 16:27:40.707 HARASSING COMMUNICATIONS
19-0902812 19-10293 1120 EAST GERMAN LN 2019-09-16 16:25:58.607 THEFT OF PROPERTY
19-0902810 2970 WASSON RD 2019-09-16 16:16:06.313 ALARM
19-0902809 1105 PRAIRIE ST 2019-09-16 16:13:48.350 SUPPLEMENT REPORT CALL
19-0902808 600 SKYLINE DR 2019-09-16 16:13:18.350 STALLED VEHICLE
19-0902806 1065 CLAYTON ST 2019-09-16 16:04:55.473 DOMESTIC DISTURBANCE
19-0902803 120 6TH ST 2019-09-16 15:51:21.627 VEHICLE TOW
19-0902802 19-10292 2101 COLLEGE AV 2019-09-16 15:48:59.573 ACCIDENT - PROPERTY DAMAGE
19-0902801 309 OAK ST 2019-09-16 15:44:10.370 STALLED VEHICLE
19-0902800 19-10289 1301 FAVRE LN 2019-09-16 15:33:50.550 ACCIDENT - PROPERTY DAMAGE
19-0902799 2336 MARTHA DR 2019-09-16 15:27:32.070 911 HANGUP CALL
19-0902798 1601 S DONAGHEY AV 2019-09-16 15:24:21.180 CHECK ON THE WELFARE
19-0902797 19-10288 2840 DAVE WARD DR 2019-09-16 15:12:33.590 HARASSING COMMUNICATIONS
19-0902793 375 E OAK ST 2019-09-16 14:53:27.573 SUSPICIOUS PERSON
19-0902792 3900 DAVE WARD DR 2019-09-16 14:51:06.870 TRESPASSING
19-0902791 19-10287 655 ELSINGER BLVD 2019-09-16 14:35:39.587 SHOPLIFTING
19-0902789 605 1ST AV 2019-09-16 14:08:54.307 BREAKING OR ENTERING
19-0902788 1155 SKYLINE DR 2019-09-16 14:07:47.063 SHOPLIFTING
19-0902787 4615 GRAHAM DR 2019-09-16 14:03:39.760 FOUND PROPERTY
19-0902786 19-10286 2168 BRUCE ST 2019-09-16 14:01:57.437 ACCIDENT - PROPERTY DAMAGE
19-0902785 1985 RICH SMITH LN 2019-09-16 13:54:54.480 TERRORISTIC THREATENING
19-0902784 1105 SKYLINE DR 2019-09-16 13:48:30.337 CIVIL MATTER
19-0902782 2501 ZOYSIA 2019-09-16 13:41:27.833 TRESPASSING
19-0902781 19-10284 2100 DAVE WARD DR 2019-09-16 13:39:44.847 ACCIDENT - PROPERTY DAMAGE
19-0902780 1105 PRAIRIE ST 2019-09-16 13:37:40.027 SERVING SUBPOENA
19-0902778 1155 SKYLINE DR 2019-09-16 13:23:08.053 SUPPLEMENT REPORT CALL
19-0902776 400 ELSINGER BLVD 2019-09-16 13:21:14.317 TRAFFIC PROBLEM-CONTROL
19-0902775 19-10283 701 ROBINS ST 2019-09-16 13:17:30.503 ACCIDENT - PROPERTY DAMAGE
19-0902773 1350 NORTH WOODS ESTATES DR 2019-09-16 13:08:46.833 ALARM
19-0902772 1601 HOGAN LN 2019-09-16 13:02:33.220 BREAKING OR ENTERING
19-0902771 19-10285 2104 HARKRIDER ST 2019-09-16 12:57:09.777 PROPERTY DAMAGE
19-0902770 915 OAK ST 2019-09-16 12:51:24.820 ATTEMPT TO CONTACT
19-0902769 201 SKYLINE DR 2019-09-16 12:50:52.623 THEFT OF PROPERTY
19-0902768 1145 FRENCH DR 2019-09-16 12:44:18.903 HARASSING COMMUNICATIONS
19-0902767 19-10282 705 4TH ST 2019-09-16 12:39:39.657 TRESPASSING
19-0902765 513 3RD AV 2019-09-16 12:24:30.437 TRESPASSING
19-0902764 1155 SKYLINE DR 2019-09-16 12:18:23.417 ATTEMPT TO CONTACT
19-0902763 1105 PRAIRIE ST 2019-09-16 12:17:07.283 SERVING SUBPOENA
19-0902760 2505 E OAK ST 2019-09-16 11:57:24.193 RECKLESS DRIVER
19-0902759 19-10281 1155 SKYLINE DR 2019-09-16 11:54:16.103 THEFT OF VEHICLE
19-0902756 3895 FRIENDSHIP RD 2019-09-16 11:44:44.197 SUPPLEMENT REPORT CALL
19-0902754 19-10280 3430 IRBY DR 2019-09-16 11:34:50.360 BATTERY REPORT
19-0902752 19-10278 2205 DAVE WARD DR 2019-09-16 11:31:25.550 THEFT OF PROPERTY
19-0902751 3900 DAVE WARD DR 2019-09-16 11:28:49.753 SUPPLEMENT REPORT CALL
19-0902750 207 WILLOW ST 2019-09-16 11:20:33.143 ATTEMPT TO CONTACT
19-0902749 19-10277 2160 HARKRIDER ST 2019-09-16 11:10:36.227 ACCIDENT - PRIVATE PROPERTY
19-0902747 19-10275 1155 SKYLINE DR 2019-09-16 10:58:54.970 LOST PROPERTY
19-0902743 855 SALEM RD 2019-09-16 10:49:12.937 SHOPLIFTING
19-0902741 19-10276 867 FENDLEY DR 2019-09-16 10:34:27.420 BURGLARY
19-0902740 2545 GRUMMER LN 2019-09-16 10:32:49.480 ALARM
19-0902738 19-10272 1230 CLIFTON ST 2019-09-16 10:07:17.540 SHOOTING
19-0902736 1330 JOYNER DR 2019-09-16 10:05:36.093 SUPPLEMENT REPORT CALL
19-0902735 1700 CALDWELL ST 2019-09-16 09:56:30.433 CIVIL MATTER
19-0902732 19-10270 3895 FRIENDSHIP RD 2019-09-16 09:43:41.703 THEFT OF PROPERTY
19-0902730 19-10268 1155 SKYLINE DR 2019-09-16 09:37:09.683 THEFT OF PROPERTY
19-0902729 19-10271 513 3RD AV 2019-09-16 09:32:56.333 BURGLARY
19-0902728 1810 ANGELINE DR 2019-09-16 09:28:41.660 AGENCY ASSIST
19-0902726 19-10267 955 E OAK ST 2019-09-16 09:26:51.857 BREAKING OR ENTERING
19-0902725 2695 DAVE WARD DR 2019-09-16 09:22:54.587 BATTERY REPORT
19-0902724 7 WASSON RD 2019-09-16 09:22:04.563 ALARM
19-0902723 19-10269 2330 SANDERS ST 2019-09-16 09:15:47.120 THEFT OF PROPERTY
19-0902721 1002 E OAK ST 2019-09-16 09:12:59.307 SUPPLEMENT REPORT CALL
19-0902717 1105 PRAIRIE ST 2019-09-16 08:55:41.367 SERVING SUBPOENA
19-0902716 1900 TYLER ST 2019-09-16 08:54:59.780 TERRORISTIC THREATENING
19-0902715 1600 MUSEUM RD 2019-09-16 08:49:46.817 CHECKING PERSON
19-0902714 1272 SPENCER ST 2019-09-16 08:32:46.473 ATTEMPT TO CONTACT
19-0902712 301 DONAGHEY AV 2019-09-16 08:19:34.310 STALLED VEHICLE
19-0902709 19-10264 580 E DAVE WARD DR 2019-09-16 08:06:55.057 ACCIDENT - PRIVATE PROPERTY
19-0902704 1105 PRAIRIE ST 2019-09-16 07:38:51.220 ATTEMPT TO CONTACT
19-0902700 1035 SKYLINE DR 2019-09-16 07:03:36.240 AGENCY ASSIST
19-0902699 19-10263 101 OAK ST 2019-09-16 06:36:42.343 MISSING PERSON
19-0902698 808 FRONT ST 2019-09-16 06:31:46.213 CHECK ON THE WELFARE
19-0902696 1065 CLAYTON ST 2019-09-16 05:20:06.653 ALARM
19-0902695 19-10262 101 OAK ST 2019-09-16 05:14:36.750 CHECK ON THE WELFARE
19-0902693 101 OAK ST 2019-09-16 04:07:19.390 CHECK ON THE WELFARE
19-0902692 380 HARKRIDER ST 2019-09-16 04:00:26.777 CHECKING VEHICLE
19-0902691 4215 TREE HOUSE DR 2019-09-16 03:58:51.370 LOUD NOISE-MUSIC
19-0902689 380 HARKRIDER ST 2019-09-16 03:51:00.547 TRAFFIC PROBLEM-CONTROL
19-0902688 2260 SANDERS ST 2019-09-16 03:16:19.747 SUSPICIOUS VEHICLE
19-0902687 1 CADRON SETTLEMENT PARK RD 2019-09-16 02:51:48.380 CHECKING BUILDING
19-0902686 850 OAK ST 2019-09-16 02:38:28.170 SUSPICIOUS VEHICLE
19-0902685 4100 RALEIGH DR 2019-09-16 02:11:53.293 LOUD NOISE-MUSIC
19-0902684 19-10261 1601 HOGAN LN 2019-09-16 01:46:47.060 THEFT OF VEHICLE
19-0902683 1080 FENDLEY DR 2019-09-16 01:27:11.020 ALARM
19-0902682 221 E OAK ST 2019-09-16 01:11:47.483 CHECKING PERSON
19-0902681 380 HARKRIDER ST 2019-09-16 00:47:15.777 SHOTS FIRED
19-0902679 19-10258 1002 E OAK ST 2019-09-16 00:00:18.887 CRIMINAL MISCHIEF
19-0902678 19-10259 1640 E OAK ST 2019-09-15 23:53:02.330 CHECKING VEHICLE
19-0902676 655 DAVE WARD DR 2019-09-15 23:00:29.820 CHECKING VEHICLE
19-0902675 1425 ROBINS ST 2019-09-15 22:42:11.360 CHECKING VEHICLE
19-0902674 1065 FRENCH DR 2019-09-15 22:22:32.460 911 HANGUP CALL
19-0902672 3230 PEBBLE BEACH DR 2019-09-15 21:43:45.010 CITIZEN ASSIST
19-0902671 1010 MAIN ST 2019-09-15 21:39:26.587 SUSPICIOUS PERSON
19-0902670 200 S HARKRIDER DR 2019-09-15 21:30:01.287 ALARM
19-0902668 3750 DAVE WARD DR 2019-09-15 21:15:46.493 LOG VEHICLE
19-0902667 1810 HOGAN LN 2019-09-15 21:08:17.227 LOUD NOISE-MUSIC
19-0902665 2740 DAVE WARD DR 2019-09-15 20:59:45.453 CHECKING VEHICLE
19-0902663 2730 DAVE WARD DR 2019-09-15 20:49:23.610 LOUD NOISE-MUSIC
19-0902662 124 I40EB 2019-09-15 20:23:55.920 TRAFFIC PROBLEM-CONTROL
19-0902661 1125 GEORGETOWN DR 2019-09-15 20:17:59.477 911 HANGUP CALL
19-0902655 2411 MEADOW DR 2019-09-15 19:25:37.580 911 HANGUP CALL
19-0902654 1322 BELLEMEADE DR 2019-09-15 19:19:32.773 CHECK ON THE WELFARE
19-0902653 1903 SOUTH BLVD 2019-09-15 19:04:01.173 CHECK ON THE WELFARE
19-0902650 1040 S AMITY RD 2019-09-15 18:49:17.573 ALARM
19-0902649 2019-09-15 18:41:11.210 PARKING VIOLATION
19-0902648 19-10256 2302 COLLEGE AV 2019-09-15 18:36:22.577 DISTURBANCE
19-0902647 1035 FRENCH DR 2019-09-15 18:31:54.907 RECKLESS DRIVER
19-0902646 19-10255 700 S SALEM RD 2019-09-15 18:21:11.580 DOMESTIC DISTURBANCE
19-0902645 100 SKYLINE DR 2019-09-15 18:08:53.373 ROAD RAGE
19-0902644 19-10254 1002 E OAK ST 2019-09-15 17:52:53.503 ACCIDENT - PROPERTY DAMAGE
19-0902643 1090 SKYLINE DR 2019-09-15 17:07:31.860 FIRE DEPT ASSIST
19-0902641 1525 CLIFTON ST 2019-09-15 16:43:31.427 THEFT OF SERVICES
19-0902636 19-10252 1905 OLD MORRILTON HWY 2019-09-15 14:46:43.407 ACCIDENT - PROPERTY DAMAGE
19-0902635 1335 ACUFF LN 2019-09-15 14:40:41.203 TRESPASSING
19-0902628 19-10251 415 OAK ST 2019-09-15 13:35:28.263 ACCIDENT - PROPERTY DAMAGE
19-0902627 475 ROBINS ST 2019-09-15 13:34:06.637 PROPERTY DAMAGE
19-0902626 12 BRIERWOOD CIR 2019-09-15 13:08:46.147 BURGLARY
19-0902625 314 ELIZABETH ST 2019-09-15 13:07:20.817 CHECK ON THE WELFARE
19-0902623 545 SKYLINE DR 2019-09-15 12:48:32.007 VEHICLE TOW
19-0902622 19-10250 207 WILLOW ST 2019-09-15 12:38:03.493 BURGLARY
19-0902621 126 I40EB 2019-09-15 12:34:08.400 CHECK ON THE WELFARE
19-0902620 850 OAK ST 2019-09-15 12:31:49.600 CHECK ON THE WELFARE
19-0902619 2500 DAVE WARD DR 2019-09-15 12:24:09.393 STALLED VEHICLE
19-0902618 1020 HOLIDAY DR 2019-09-15 12:17:31.297 SUPPLEMENT REPORT CALL
19-0902617 1105 PRAIRIE ST 2019-09-15 12:10:46.800 THEFT OF PROPERTY
19-0902615 2019-09-15 12:06:44.070 SUPPLEMENT REPORT CALL
19-0902613 150 GRAND FALLS 2019-09-15 11:59:34.483 DOMESTIC DISTURBANCE
19-0902612 710 S HARKRIDER DR 2019-09-15 11:48:10.913 CIVIL MATTER
19-0902611 1985 RICH SMITH LN 2019-09-15 11:42:49.323 NO CONTACT ORDER VIOLATION
19-0902610 19-10249 1306 S DONAGHEY AV 2019-09-15 11:39:47.170 MISSING PERSON
19-0902609 501 DONAGHEY AV 2019-09-15 11:16:28.547 STALLED VEHICLE
19-0902607 124 I40EB 2019-09-15 10:55:01.737 DOMESTIC DISTURBANCE
19-0902604 19-10248 475 ROBINS ST 2019-09-15 10:48:36.267 HARASSMENT
19-0902602 905 E OAK ST 2019-09-15 10:34:28.907 CHECK ON THE WELFARE
19-0902600 3275 LILLIAN CV 2019-09-15 10:18:47.387 LOUD NOISE-MUSIC
19-0902599 908 E OAK ST 2019-09-15 10:12:36.530 CHECK ON THE WELFARE
19-0902598 2010 RICH SMITH LN 2019-09-15 10:05:18.227 SUPPLEMENT REPORT CALL
19-0902597 1620 MIDDLE RD 2019-09-15 10:01:07.770 CIVIL STAND BY
19-0902596 1525 NEW OXFORD RD 2019-09-15 09:46:22.203 DOMESTIC DISTURBANCE
19-0902594 19-10247 127 I40EB 2019-09-15 09:25:27.437 ACCIDENT - PROPERTY DAMAGE
19-0902593 2430 SANDERS ST 2019-09-15 09:12:37.457 DOMESTIC DISTURBANCE
19-0902591 170 MERLOT DR 2019-09-15 08:31:41.590 ALARM
19-0902590 1301 ROBINS ST 2019-09-15 08:25:37.563 RECOVERED PROPERTY
19-0902586 1001 HARKRIDER ST 2019-09-15 05:58:52.540 TRAFFIC PROBLEM-CONTROL
19-0902585 600 ELSINGER BLVD 2019-09-15 05:58:14.620 CHECKING VEHICLE
19-0902584 2225 PRINCE ST 2019-09-15 05:30:38.683 RECKLESS DRIVER
19-0902583 19-10246 2010 RICH SMITH LN 2019-09-15 03:37:06.523 UNKNOWN TROUBLE
19-0902582 19-10245 2105 NATURE TRL 2019-09-15 03:36:27.050 CHECKING VEHICLE
19-0902581 3510 BAY BERRY RD 2019-09-15 03:28:50.697 THEFT OF VEHICLE
19-0902580 4935 CINDY LEE CV 2019-09-15 03:15:27.777 INTOXICATED PERSON
19-0902579 2500 OLD MORRILTON HWY 2019-09-15 02:44:47.067 RECKLESS DRIVER
19-0902578 1105 SKYLINE DR 2019-09-15 02:41:27.550 UNKNOWN TROUBLE
19-0902577 1020 HOLIDAY DR 2019-09-15 02:40:32.023 FIGHT
19-0902576 1095 SKYLINE DR 2019-09-15 02:30:42.910 DISTURBANCE
19-0902575 812 CHESTNUT ST 2019-09-15 02:24:45.930 ARMED SUBJECT
19-0902574 2560 SAPPHIRE DR 2019-09-15 02:20:31.290 DISTURBANCE
19-0902573 2275 MOIX BLVD 2019-09-15 02:17:53.810 CHECKING VEHICLE
19-0902571 12 OAKDALE DR 2019-09-15 01:58:05.400 ATTEMPT TO CONTACT
19-0902569 19-10244 195 FARRIS RD 2019-09-15 01:53:08.733 FIGHT
19-0902568 19-10243 1020 HOLIDAY DR 2019-09-15 01:40:23.987 FIGHT
19-0902567 1600 WESTLAKE DR 2019-09-15 01:21:36.797 BREAKING OR ENTERING
19-0902566 4101 TYLER ST 2019-09-15 00:52:22.203 LOST CHILD-FOUND CHILD
19-0902565 530 S DONAGHEY AV 2019-09-15 00:39:58.753 UNKNOWN TROUBLE
19-0902564 875 SKYLINE DR 2019-09-15 00:38:55.307 SUSPICIOUS VEHICLE
19-0902562 19-10242 955 SOUTH GERMAN LN 2019-09-15 00:34:24.190 DOMESTIC DISTURBANCE
19-0902561 1 SUSAN LN 2019-09-15 00:26:36.510 LOUD NOISE-MUSIC
19-0902560 1200 E DAVE WARD DR 2019-09-15 00:21:56.317 STALLED VEHICLE
19-0902559 2340 LINDA DR 2019-09-15 00:15:33.213 BARKING DOG COMPLAINT
19-0902557 19-10241 1269 HARRISON ST 2019-09-15 00:08:45.170 UNKNOWN TROUBLE
19-0902556 1175 MORNINGSIDE DR 2019-09-15 00:03:29.223 SUPPLEMENT REPORT CALL
19-0902555 1080 FENDLEY DR 2019-09-14 23:56:19.657 ALARM
19-0902554 19-10240 1701 HARKRIDER ST 2019-09-14 23:54:07.150 ACCIDENT - PROPERTY DAMAGE
19-0902553 835 S DONAGHEY AV 2019-09-14 23:49:46.840 PROWLER
19-0902552 1499 FACTORY ST 2019-09-14 23:38:56.980 DOMESTIC DISTURBANCE
19-0902550 19-10238 3260 CAMPBELL MARIE DR 2019-09-14 23:29:23.123 ACCIDENT - PROPERTY DAMAGE
19-0902549 2840 DAVE WARD DR 2019-09-14 23:26:06.267 ATTEMPT TO CONTACT
19-0902548 2015 RICH SMITH LN 2019-09-14 23:24:41.413 LOUD NOISE-MUSIC
19-0902547 1600 WESTLAKE DR 2019-09-14 23:15:26.193 DOMESTIC DISTURBANCE
19-0902543 19-10237 1214 CLIFTON ST 2019-09-14 23:01:33.560 DOMESTIC DISTURBANCE
19-0902541 127 I40EB 2019-09-14 22:52:38.633 ROAD RAGE
19-0902538 2900 DAVE WARD DR 2019-09-14 22:35:53.830 RECKLESS DRIVER
19-0902537 2400 MARKET PLAZA DR 2019-09-14 22:34:19.033 LOUD NOISE-MUSIC
19-0902534 19-10235 323 S ASH ST 2019-09-14 22:15:28.477 DOMESTIC DISTURBANCE
19-0902531 19-10231 700 S HOGAN LN 2019-09-14 21:53:32.403 CHECK ON THE WELFARE
19-0902530 5110 OLD MORRILTON HWY 2019-09-14 21:49:32.927 RECKLESS DRIVER
19-0902529 19-10234 20 KINLEY DR 2019-09-14 21:47:45.423 ACCIDENT - PROPERTY DAMAGE
19-0902528 960 WINEBERRY RD 2019-09-14 21:43:17.613 SUSPICIOUS VEHICLE
19-0902522 1905 OLD MORRILTON HWY 2019-09-14 21:19:43.640 VEHICLE TOW
19-0902521 2510 PRINCE ST 2019-09-14 21:10:22.743 FIGHT
19-0902520 1104 E OAK ST 2019-09-14 21:07:11.150 ALARM - BANK
19-0902519 1155 SKYLINE DR 2019-09-14 21:04:18.567 CHECKING PERSON
19-0902514 2909 ADAM ST 2019-09-14 20:29:33.093 DOMESTIC DISTURBANCE
19-0902513 100 E 6TH ST 2019-09-14 20:29:01.420 CHECK ON THE WELFARE
19-0902512 3615 HEIDI CT 2019-09-14 20:26:54.407 SUPPLEMENT REPORT CALL
19-0902511 1120 EAST GERMAN LN 2019-09-14 20:26:05.330 DOMESTIC DISTURBANCE
19-0902510 215 SKYLINE DR 2019-09-14 20:25:51.097 CITIZEN ASSIST
19-0902509 19-10230 500 SOUTH GERMAN LN 2019-09-14 20:23:46.040 MISDEMEANOR WARRANT SERVICE
19-0902507 800 S DONAGHEY AV 2019-09-14 20:00:50.260 CHECKING VEHICLE
19-0902506 450 ROBINS ST 2019-09-14 19:59:58.863 LOUD NOISE-MUSIC
19-0902505 1105 PRAIRIE ST 2019-09-14 19:49:07.513 CIVIL STAND BY
19-0902501 1120 EAST GERMAN LN 2019-09-14 19:27:36.370 SUPPLEMENT REPORT CALL
19-0902498 19-10229 3615 HEIDI CT 2019-09-14 18:56:30.857 ACCIDENT - PEDESTRIAN
19-0902497 815 E OAK ST 2019-09-14 18:45:50.697 CIVIL MATTER
19-0902496 2899 CARL STUART ST 2019-09-14 18:43:51.760 ATTEMPT TO CONTACT
19-0902494 2125 HARKRIDER ST 2019-09-14 18:29:21.787 DISORDERLY CONDUCT
19-0902492 200 S HARKRIDER DR 2019-09-14 18:07:27.923 HARASSMENT
19-0902491 2125 LANDOVER TRL 2019-09-14 17:57:19.390 HARASSING COMMUNICATIONS
19-0902489 1100 BRUCE ST 2019-09-14 17:33:29.957 STALLED VEHICLE
19-0902488 1069 DONAGHEY AV 2019-09-14 16:44:46.893 CIVIL MATTER
19-0902487 31 DENDRON ST 2019-09-14 16:38:24.333 SUSPICIOUS VEHICLE
19-0902484 2825 PEBBLE BEACH DR 2019-09-14 16:21:51.750 CRIMINAL MISCHIEF
19-0902482 708 OAK ST 2019-09-14 16:18:25.137 DISTURBANCE
19-0902480 1671 S SALEM RD 2019-09-14 16:06:40.000 CHECK ON THE WELFARE
19-0902478 19-10226 3900 DAVE WARD DR 2019-09-14 15:48:04.670 ACCIDENT - PRIVATE PROPERTY
19-0902477 19-10225 1605 JOHN BRYANT DR 2019-09-14 15:45:26.843 PROPERTY DAMAGE
19-0902474 19-10227 2125 HARKRIDER ST 2019-09-14 15:15:47.927 ATTEMPT TO CONTACT
19-0902473 900 E SIEBENMORGEN RD 2019-09-14 15:10:45.263 STALLED VEHICLE
19-0902472 1105 REYNOLDS AV 2019-09-14 15:03:11.823 FOUND PROPERTY
19-0902468 19-10220 1055 CROSSPOINT RD 2019-09-14 14:17:14.703 DOMESTIC DISTURBANCE
19-0902467 19-10221 2799 SALEM RD 2019-09-14 14:16:52.333 ACCIDENT - PROPERTY DAMAGE
19-0902465 19-10222 700 ELSINGER BLVD 2019-09-14 14:05:53.717 ACCIDENT - PRIVATE PROPERTY
19-0902464 19-10224 2005 DAVE WARD DR 2019-09-14 14:04:34.373 ACCIDENT - PERSONAL INJURY
19-0902462 19-10223 1405 S DONAGHEY AV 2019-09-14 13:55:22.297 TERRORISTIC THREATENING
19-0902461 2050 KEATHLEY DR 2019-09-14 13:53:37.390 LOUD NOISE-MUSIC
19-0902460 19-10219 705 CHERUB DR 2019-09-14 13:51:27.540 FIRE DEPT ASSIST
19-0902459 1117 OAK ST 2019-09-14 13:50:34.667 ATTEMPT TO CONTACT
19-0902456 1615 E OAK ST 2019-09-14 13:38:58.323 ATTEMPT TO CONTACT
19-0902455 3090 PEBBLE BEACH DR 2019-09-14 13:19:56.917 ATTEMPT TO CONTACT
19-0902453 1005 SANTA FE TRL 2019-09-14 13:08:12.380 CHECK ON THE WELFARE
19-0902452 475 ROBINS ST 2019-09-14 13:07:39.323 HARASSMENT
19-0902451 250 HARKRIDER ST 2019-09-14 12:58:35.860 CHECK ON THE WELFARE
19-0902450 2155 ROSEMARY DR 2019-09-14 12:55:28.080 DOMESTIC DISTURBANCE
19-0902449 19-10217 1290 S AMITY RD 2019-09-14 12:43:15.457 ACCIDENT - PRIVATE PROPERTY
19-0902448 19-10218 2440 SAPPHIRE DR 2019-09-14 12:29:51.880 THEFT OF PROPERTY
19-0902442 2010 RICH SMITH LN 2019-09-14 11:51:25.823 THEFT OF VEHICLE
19-0902441 19-10215 1105 SKYLINE DR 2019-09-14 11:46:01.720 CHECKING PERSON
19-0902439 19-10214 1095 SKYLINE DR 2019-09-14 11:19:27.690 CHECK ON THE WELFARE
19-0902438 255 FARRIS RD 2019-09-14 11:11:53.253 VEHICLE TOW
19-0902436 2799 SALEM RD 2019-09-14 11:04:06.287 CHECK ON THE WELFARE
19-0902434 19-10216 1229 CLIFTON ST 2019-09-14 10:40:42.410 ATTEMPT TO CONTACT
19-0902433 1800 STURGIS RD 2019-09-14 10:34:39.363 ALARM
19-0902432 711 MITCHELL ST 2019-09-14 10:31:14.017 CHECK ON THE WELFARE
19-0902431 1105 PRAIRIE ST 2019-09-14 10:26:28.277 ATTEMPT TO CONTACT
19-0902429 1115 E OAK ST 2019-09-14 09:57:46.203 CIVIL STAND BY
19-0902428 19-10211 5099 DAVE WARD DR 2019-09-14 09:47:49.160 ACCIDENT - PROPERTY DAMAGE
19-0902425 2004 MICHELLE CIR 2019-09-14 09:15:05.990 ALARM
19-0902424 2825 PEBBLE BEACH DR 2019-09-14 09:15:01.867 CHECK ON THE WELFARE
19-0902420 1310 CLIFTON ST 2019-09-14 08:56:59.080 DOMESTIC DISTURBANCE
19-0902419 19-10210 102 OAKLAWN DR 2019-09-14 08:56:03.697 CRIMINAL MISCHIEF
19-0902418 1500 BLUSTERY WAY 2019-09-14 08:37:13.017 ALARM
19-0902417 19-10208 705 MUSEUM RD 2019-09-14 08:19:03.560 BREAKING OR ENTERING
19-0902416 19-10207 705 MUSEUM RD 2019-09-14 08:18:00.807 BREAKING OR ENTERING
19-0902415 475 ROBINS ST 2019-09-14 08:15:50.337 FIRE DEPT ASSIST
19-0902412 19-10209 705 MUSEUM RD 2019-09-14 08:05:33.453 BREAKING OR ENTERING
19-0902411 1720 OLD MORRILTON HWY 2019-09-14 07:47:03.307 CHECKING VEHICLE
19-0902410 2350 SANDERS ST 2019-09-14 07:45:48.187 CHECKING BUILDING
19-0902409 19-10206 2310 SANDERS ST 2019-09-14 07:32:32.427 BREAKING OR ENTERING
19-0902407 19-10205 2310 SANDERS ST 2019-09-14 07:23:34.290 BREAKING OR ENTERING
19-0902406 1200 MUSEUM RD 2019-09-14 07:22:59.373 SUSPICIOUS ACTIVITY
19-0902404 19-10203 2260 SANDERS ST 2019-09-14 06:50:07.007 BREAKING OR ENTERING
19-0902403 1310 CLIFTON ST 2019-09-14 06:41:49.373 SUPPLEMENT REPORT CALL
19-0902402 1580 EDGESTONE CIR 2019-09-14 06:17:58.703 911 HANGUP CALL
19-0902400 2005 DAVE WARD DR 2019-09-14 05:00:01.507 CHECK ON THE WELFARE
19-0902398 850 OAK ST 2019-09-14 04:44:50.803 CHECKING VEHICLE
19-0902397 2730 DAVE WARD DR 2019-09-14 04:28:49.250 LOUD NOISE-MUSIC
19-0902394 4840 PARK PLACE DR 2019-09-14 02:40:07.080 DOMESTIC DISTURBANCE
19-0902392 2302 COLLEGE AV 2019-09-14 02:20:55.597 STALLED VEHICLE
19-0902391 335 RADCLIFFE DR 2019-09-14 02:10:40.027 LOUD NOISE-MUSIC
19-0902390 2302 COLLEGE AV 2019-09-14 02:10:08.007 ATTEMPT TO CONTACT
19-0902388 19-10202 2125 HARKRIDER ST 2019-09-14 01:40:38.107 CHECKING VEHICLE
19-0902387 1105 MORNINGSIDE DR 2019-09-14 01:24:08.397 CHECKING PERSON
19-0902386 108 LOWER RIDGE RD 2019-09-14 01:22:49.550 ALARM
19-0902385 116 HARKRIDER ST 2019-09-14 01:14:25.430 CHECKING VEHICLE
19-0902384 1105 PRAIRIE ST 2019-09-14 01:03:08.587 MISDEMEANOR WARRANT SERVICE
19-0902382 114 S MITCHELL ST 2019-09-14 00:45:17.273 DOMESTIC DISTURBANCE
19-0902381 1090 SKYLINE DR 2019-09-14 00:43:06.680 FIGHT
19-0902380 815 E OAK ST 2019-09-14 00:31:45.427 SUSPICIOUS PERSON
19-0902379 2101 COLLEGE AV 2019-09-14 00:26:16.977 INDECENT EXPOSURE
19-0902376 155 FARRIS RD 2019-09-14 00:04:13.413 FIRE DEPT ASSIST
19-0902374 1104 GUM ST 2019-09-13 23:58:45.563 FIGHT
19-0902373 100 E DAVE WARD DR 2019-09-13 23:46:03.433 RECKLESS DRIVER
19-0902372 810 CRAIN DR 2019-09-13 23:36:39.040 SUSPICIOUS ACTIVITY
19-0902370 132 I40WB 2019-09-13 23:25:06.710 AGENCY ASSIST
19-0902369 23 MORNINGSIDE DR 2019-09-13 23:18:44.183 SUSPICIOUS PERSON
19-0902368 2755 YORK LN 2019-09-13 23:13:54.510 BARKING DOG COMPLAINT
19-0902367 545 E DAVE WARD DR 2019-09-13 23:10:12.403 AGENCY ASSIST
19-0902366 475 ROBINS ST 2019-09-13 22:58:50.653 DISTURBANCE
19-0902364 1250 S AMITY RD 2019-09-13 22:53:10.857 ALARM
19-0902362 19-10199 1120 EAST GERMAN LN 2019-09-13 22:35:51.030 ACCIDENT - PERSONAL INJURY
19-0902361 1835 OTT MEMORIAL BLVD 2019-09-13 22:34:47.950 COMPUTER CRIMES
19-0902360 2825 PEBBLE BEACH DR 2019-09-13 22:25:54.957 TRESPASSING
19-0902359 2101 PRINCE ST 2019-09-13 22:23:50.910 LOST CHILD-FOUND CHILD
19-0902358 2899 CARL STUART ST 2019-09-13 22:22:14.173 SUPPLEMENT REPORT CALL
19-0902357 1615 WESTLAKE DR 2019-09-13 22:20:26.660 DOMESTIC DISTURBANCE
19-0902356 404 WATKINS ST 2019-09-13 22:16:03.353 LOUD NOISE-MUSIC
19-0902355 955 E OAK ST 2019-09-13 21:53:38.883 INTOXICATED DRIVER
19-0902354 217 S CENTER ST 2019-09-13 21:53:11.583 DOMESTIC DISTURBANCE
19-0902353 500 SOUTH GERMAN LN 2019-09-13 21:38:23.150 FELONY WARRANT SERVICE
19-0902350 19-10198 1003 MUSEUM RD 2019-09-13 21:17:42.047 SHOTS FIRED
19-0902349 2738 BRUCE ST 2019-09-13 21:14:54.850 SUSPICIOUS ACTIVITY
19-0902348 1205 DAVE WARD DR 2019-09-13 21:14:40.520 INTOXICATED PERSON
19-0902345 322 MITCHELL ST 2019-09-13 21:07:40.440 ATTEMPT TO CONTACT
19-0902342 500 SOUTH GERMAN LN 2019-09-13 20:57:05.323 MISDEMEANOR WARRANT SERVICE
19-0902340 2300 PRINCE ST 2019-09-13 20:25:21.160 FIGHT
19-0902339 1400 STORIE DR 2019-09-13 20:18:55.987 ILLEGAL DUMPING
19-0902338 2000 KEATHLEY DR 2019-09-13 20:16:13.990 CHECK ON THE WELFARE
19-0902337 2550 PRINCE ST 2019-09-13 20:16:09.990 THEFT OF PROPERTY
19-0902336 600 E DAVE WARD DR 2019-09-13 20:13:22.880 TRAFFIC PROBLEM-CONTROL
19-0902335 9 MORNINGSIDE DR 2019-09-13 20:06:55.690 PROWLER
19-0902334 127 I40EB 2019-09-13 19:56:54.540 STALLED VEHICLE
19-0902329 925 OAK ST 2019-09-13 19:14:09.690 ALARM
19-0902327 537 LOLLIE RD 2019-09-13 18:41:19.063 TRESPASSING
19-0902326 19-10194 705 E SIEBENMORGEN RD 2019-09-13 18:39:07.707 NO CONTACT ORDER VIOLATION
19-0902325 19-10192 475 ROBINS ST 2019-09-13 18:33:57.920 BATTERY REPORT
19-0902323 19-10191 2899 CARL STUART ST 2019-09-13 18:25:11.953 ACCIDENT - PERSONAL INJURY
19-0902322 2100 SALEM RD 2019-09-13 18:10:49.227 STALLED VEHICLE
19-0902321 19-10190 401 2ND ST 2019-09-13 18:01:20.143 DOMESTIC DISTURBANCE
19-0902320 19-10189 350 E OAK ST 2019-09-13 17:55:46.853 ACCIDENT - PROPERTY DAMAGE
19-0902319 207 WILLOW ST 2019-09-13 17:50:37.430 DOMESTIC DISTURBANCE
19-0902318 2220 PRINCE ST 2019-09-13 17:44:29.107 ROAD RAGE
19-0902317 19-10188 1918 TORREYSON ST 2019-09-13 17:42:58.640 CRIMINAL MISCHIEF
19-0902316 2019-09-13 17:34:20.297 ATTEMPT TO CONTACT
19-0902315 2118 PRINCE ST 2019-09-13 17:16:04.173 FRAUD
19-0902314 19-10187 1337 COLLEGE AV 2019-09-13 17:07:00.393 THEFT OF PROPERTY
19-0902313 1212 HARRISON ST 2019-09-13 17:03:57.863 SUSPICIOUS VEHICLE
19-0902312 129 I40EB 2019-09-13 17:02:43.223 CHECK ON THE WELFARE
19-0902311 4675 OLD MORRILTON HWY 2019-09-13 16:59:40.473 CIVIL MATTER
19-0902310 500 SOUTH GERMAN LN 2019-09-13 16:57:31.157 ATTEMPT TO CONTACT
19-0902308 129 I40WB 2019-09-13 16:36:41.053 RECKLESS DRIVER
19-0902307 100 SKYLINE DR 2019-09-13 16:31:16.943 ENDANGERING WELFARE OF MINOR
19-0902306 900 FARRIS RD 2019-09-13 16:28:18.603 SUSPICIOUS PERSON
19-0902305 1055 CROSSPOINT RD 2019-09-13 16:26:18.237 DOMESTIC DISTURBANCE
19-0902304 99 WHITTEN RD 2019-09-13 16:25:43.540 CHECK ON THE WELFARE
19-0902303 19-10186 2235 RAINTREE DR 2019-09-13 16:17:20.813 BATTERY REPORT
19-0902302 1175 MORNINGSIDE DR 2019-09-13 16:14:03.497 SUPPLEMENT REPORT CALL
19-0902301 975 E OAK ST 2019-09-13 16:07:00.363 ACCIDENT - PRIVATE PROPERTY
19-0902300 2415 DONAGHEY AV 2019-09-13 16:05:52.547 AGENCY ASSIST
19-0902298 19-10185 1100 E OAK ST 2019-09-13 16:03:01.307 ACCIDENT - PROPERTY DAMAGE
19-0902297 600 5TH AV 2019-09-13 15:51:21.313 CHECK ON THE WELFARE
19-0902296 650 LOCUST AV 2019-09-13 15:42:35.600 FRAUD
19-0902295 19-10184 705 MUSEUM RD 2019-09-13 15:39:39.743 BURGLARY
19-0902294 1575 FREYALDENHOVEN LN 2019-09-13 15:38:23.277 SUSPICIOUS PERSON
19-0902293 203 S CENTER ST 2019-09-13 15:34:21.153 FOUND PROPERTY
19-0902292 46 DENDRON ST 2019-09-13 15:32:17.400 ATTEMPT TO CONTACT
19-0902291 2051 HARKRIDER ST 2019-09-13 15:23:51.997 CHECK ON THE WELFARE
19-0902290 1105 PRAIRIE ST 2019-09-13 15:16:20.747 SUPPLEMENT REPORT CALL
19-0902287 19-10183 1105 E OAK ST 2019-09-13 14:49:24.773 ACCIDENT - PERSONAL INJURY
19-0902284 2207 ARKANSAS AV 2019-09-13 14:29:50.150 ALARM
19-0902283 19-10181 99 MORNINGSIDE DR 2019-09-13 14:27:02.350 ACCIDENT - PROPERTY DAMAGE
19-0902281 19-10180 1200 DAVE WARD DR 2019-09-13 14:18:47.660 ACCIDENT - PERSONAL INJURY
19-0902280 867 FENDLEY DR 2019-09-13 14:09:08.733 THEFT OF PROPERTY
19-0902279 955 E OAK ST 2019-09-13 14:06:06.680 BREAKING OR ENTERING
19-0902278 2019-09-13 14:05:11.893 ATTEMPT TO CONTACT
19-0902277 4101 COLLEGE AV 2019-09-13 13:59:16.457 ATTEMPT TO CONTACT
19-0902276 19-10179 1620 MIDDLE RD 2019-09-13 13:53:49.123 CIVIL MATTER
19-0902275 661 DAVE WARD DR 2019-09-13 13:51:30.930 SUPPLEMENT REPORT CALL
19-0902274 1210 E OAK ST 2019-09-13 13:47:54.497 ATTEMPT TO CONTACT
19-0902271 530 S DONAGHEY AV 2019-09-13 13:40:05.513 PARKING VIOLATION
19-0902269 19-10176 1004 OAK ST 2019-09-13 13:32:10.900 ACCIDENT - PROPERTY DAMAGE
19-0902268 3995 FRIENDSHIP RD 2019-09-13 13:31:47.787 CIVIL MATTER
19-0902267 1210 S AMITY RD 2019-09-13 13:23:08.780 ACCIDENT - PRIVATE PROPERTY
19-0902266 22 FAIR OAKS DR 2019-09-13 13:15:48.847 FIGHT
19-0902265 19-10174 1008 E OAK ST 2019-09-13 13:05:46.700 ACCIDENT - PROPERTY DAMAGE
19-0902263 1670 JACKSON DR 2019-09-13 12:43:27.587 SUSPICIOUS PERSON
19-0902262 15 ROSANNE DR 2019-09-13 12:39:03.183 BATTERY REPORT
19-0902261 19-10172 1475 STONE CREST DR 2019-09-13 12:38:19.047 DISTURBANCE
19-0902259 19-10173 2302 COLLEGE AV 2019-09-13 12:35:13.160 DOMESTIC DISTURBANCE
19-0902258 3900 DAVE WARD DR 2019-09-13 12:30:32.743 SUPPLEMENT REPORT CALL
19-0902257 2420 WASHINGTON AV 2019-09-13 12:20:14.573 UNKNOWN TROUBLE
19-0902255 19-10171 1505 OLD MORRILTON HWY 2019-09-13 12:00:17.220 ACCIDENT - PROPERTY DAMAGE
19-0902254 800 S DONAGHEY AV 2019-09-13 11:50:13.120 STALLED VEHICLE
19-0902253 1614 WESTLAKE DR 2019-09-13 11:43:52.053 SUPPLEMENT REPORT CALL
19-0902251 1423 INGRAM ST 2019-09-13 11:26:22.090 DOMESTIC DISTURBANCE
19-0902248 19-10170 1565 BILL LUCY DR 2019-09-13 11:00:25.383 PROPERTY DAMAGE
19-0902247 475 ROBINS ST 2019-09-13 10:57:59.497 ATTEMPT TO CONTACT
19-0902245 19-10169 150 E SIEBENMORGEN RD 2019-09-13 10:48:22.570 ABUSE
19-0902244 19-10168 1632 DONAGHEY AV 2019-09-13 10:42:48.057 ACCIDENT - PRIVATE PROPERTY
19-0902243 2575 ZOYSIA 2019-09-13 10:42:23.210 BREAKING OR ENTERING
19-0902242 940 BROWNSTONE DR 2019-09-13 10:40:38.020 SUSPICIOUS VEHICLE
19-0902239 19-10167 4101 TYLER ST 2019-09-13 10:09:28.883 ACCIDENT - HIT AND RUN
19-0902235 1800 ROBINSON AV 2019-09-13 09:43:08.900 CHECK ON THE WELFARE
19-0902231 5 CAMBRIDGE DR 2019-09-13 09:17:33.370 AGENCY ASSIST
19-0902221 5380 APRIL DR 2019-09-13 08:44:15.230 SUPPLEMENT REPORT CALL
19-0902220 19-10165 2805 PRINCE ST 2019-09-13 08:24:31.410 BURGLARY
19-0902219 19-10164 545 SKYLINE DR 2019-09-13 08:21:19.970 ACCIDENT - PROPERTY DAMAGE
19-0902216 1125 FRONT ST 2019-09-13 08:09:24.443 ALARM
19-0902209 1325 OLD MORRILTON HWY 2019-09-13 07:29:51.270 FOUND PROPERTY
19-0902208 2302 COLLEGE AV 2019-09-13 06:53:47.283 DISTURBANCE
19-0902207 5 BROADMOOR DR 2019-09-13 06:49:36.923 ABANDONED VEHICLE
19-0902206 19-10163 2603 DAVE WARD DR 2019-09-13 06:31:41.503 BATTERY REPORT
19-0902205 2465 SANDERS ST 2019-09-13 06:22:41.147 OPEN DOOR/WINDOW/FENCE
19-0902204 2415 WASHINGTON AV 2019-09-13 05:57:09.487 UNKNOWN TROUBLE
19-0902202 810 MUSEUM RD 2019-09-13 04:59:46.737 TRESPASSING
19-0902201 612 MITCHELL ST 2019-09-13 04:54:24.050 FIRE DEPT ASSIST
19-0902199 2050 DAVE WARD DR 2019-09-13 04:42:55.583 CHECKING PERSON
19-0902198 1601 HOGAN LN 2019-09-13 04:30:26.170 CHECKING PERSON
19-0902196 1284 S AMITY RD 2019-09-13 04:07:10.040 ALARM
19-0902195 2215 PRINCE ST 2019-09-13 03:54:53.160 CHECKING VEHICLE
19-0902194 816 E OAK ST 2019-09-13 03:25:27.807 TRESPASSING
19-0902192 19-10162 790 ELSINGER BLVD 2019-09-13 02:44:13.130 CHECKING VEHICLE
19-0902191 2503 W MARTIN ST 2019-09-13 02:30:33.067 UNKNOWN TROUBLE
19-0902190 875 PINE ST 2019-09-13 02:23:32.010 CHECKING PERSON
19-0902187 2 L A NIVEN DR 2019-09-13 02:04:30.823 AGENCY ASSIST
19-0902186 2503 W MARTIN ST 2019-09-13 01:58:37.923 CRIMINAL MISCHIEF
19-0902184 2100 RAINTREE DR 2019-09-13 01:44:43.970 LOUD NOISE-MUSIC
19-0902183 602 1ST AV 2019-09-13 01:30:59.790 CHECKING PERSON
19-0902182 112 E OAK ST 2019-09-13 01:15:21.217 CHECKING PERSON
19-0902181 1105 SKYLINE DR 2019-09-13 00:54:59.240 CHECKING VEHICLE
19-0902180 19-10161 3101 PRINCE ST 2019-09-13 00:10:10.600 CHECKING PERSON
19-0902179 1105 PRAIRIE ST 2019-09-13 00:08:16.550 ATTEMPT TO CONTACT
19-0902177 2051 HARKRIDER ST 2019-09-13 00:04:44.617 CHECKING VEHICLE
19-0902175 235 FARRIS RD 2019-09-12 23:57:33.670 LOUD NOISE-MUSIC
19-0902174 2006 MARILYN DR 2019-09-12 23:54:37.500 CIVIL STAND BY
19-0902173 1950 HARKRIDER ST 2019-09-12 23:29:24.680 DOMESTIC DISTURBANCE
19-0902172 19-10159 1310 CLIFTON ST 2019-09-12 23:26:02.633 DOMESTIC DISTURBANCE
19-0902170 1932 MARTIN ST 2019-09-12 22:39:57.127 CHECK ON THE WELFARE
19-0902169 100 SKYLINE DR 2019-09-12 22:38:34.117 RECKLESS DRIVER
19-0902168 1901 HOGAN LN 2019-09-12 22:36:55.163 DISTURBANCE
19-0902167 100 SKYLINE DR 2019-09-12 22:22:20.560 ATTEMPT TO CONTACT
19-0902166 19-10158 1235 EAST GERMAN LN 2019-09-12 22:15:53.227 DOMESTIC DISTURBANCE
19-0902165 350 E OAK ST 2019-09-12 22:11:57.957 ALARM
19-0902164 19-10160 501 ELSINGER BLVD 2019-09-12 22:02:59.953 CHECKING VEHICLE
19-0902163 308 COUNTRY CLUB RD 2019-09-12 21:41:17.520 THEFT OF IDENTITY
19-0902160 2299 DAVE WARD DR 2019-09-12 21:32:40.703 CHECKING VEHICLE
19-0902159 1040 S AMITY RD 2019-09-12 21:09:42.850 CHECKING VEHICLE
19-0902158 1284 S AMITY RD 2019-09-12 21:04:21.090 CHECKING VEHICLE
19-0902157 1225 WOODSIDE DR 2019-09-12 21:03:13.190 REPOSSESSION
19-0902156 1200 S AMITY RD 2019-09-12 20:54:13.427 CHECKING VEHICLE
19-0902155 2503 W MARTIN ST 2019-09-12 20:35:53.520 CHECK ON THE WELFARE
19-0902154 19-10157 805 AMITY RD 2019-09-12 20:34:24.927 BREAKING OR ENTERING
19-0902153 801 S SALEM RD 2019-09-12 20:34:06.873 RECKLESS DRIVER
19-0902152 1008 E OAK ST 2019-09-12 20:23:10.887 ALARM
19-0902151 19-10156 1101 FENDLEY DR 2019-09-12 20:12:55.377 BREAKING OR ENTERING
19-0902148 1101 FENDLEY DR 2019-09-12 19:50:41.183 BREAKING OR ENTERING
19-0902147 1832 ROBINSON AV 2019-09-12 19:49:25.940 SUSPICIOUS VEHICLE
19-0902146 19-10155 4 SHADY LANE DR 2019-09-12 19:38:42.897 RUNAWAY
19-0902145 19-10154 380 HARKRIDER ST 2019-09-12 19:33:26.813 LOST PROPERTY
19-0902144 1720 S SALEM RD 2019-09-12 19:29:34.393 FIGHT
19-0902143 19-10153 1155 SKYLINE DR 2019-09-12 19:28:38.210 BREAKING OR ENTERING
19-0902141 702 OAK ST 2019-09-12 19:12:59.210 ROAD RAGE
19-0902139 53 BRIERWOOD CIR 2019-09-12 19:01:49.527 SUSPICIOUS PERSON
19-0902135 1014 HARKRIDER ST 2019-09-12 18:56:56.570 LOST PROPERTY
19-0902134 2550 PRINCE ST 2019-09-12 18:53:27.870 DISTURBANCE
19-0902133 200 E DAVE WARD DR 2019-09-12 18:52:18.277 CHECKING PERSON
19-0902131 1120 GUM ST 2019-09-12 18:46:47.867 CHECKING PERSON
19-0902129 1701 HARKRIDER ST 2019-09-12 18:18:27.650 RECKLESS DRIVER
19-0902127 475 ROBINS ST 2019-09-12 18:07:25.723 DOMESTIC DISTURBANCE
19-0902126 19-10152 150 E OAK ST 2019-09-12 17:52:36.580 DISTURBANCE
19-0902125 19-10151 2001 COLLEGE AV 2019-09-12 17:35:05.617 ACCIDENT - PROPERTY DAMAGE
19-0902124 3100 SALEM RD 2019-09-12 17:31:10.487 CHECK ON THE WELFARE
19-0902122 306 MILDRED ST 2019-09-12 17:18:58.370 ATTEMPT TO CONTACT
19-0902121 401 2ND ST 2019-09-12 17:18:51.407 CHECK ON THE WELFARE
19-0902120 1620 DUKE ST 2019-09-12 17:18:06.130 DOMESTIC DISTURBANCE
19-0902117 1014 HARKRIDER ST 2019-09-12 16:55:10.207 LOST PROPERTY
19-0902116 19-10149 2799 SALEM RD 2019-09-12 16:44:04.560 ACCIDENT - PROPERTY DAMAGE
19-0902115 1670 DUKE ST 2019-09-12 16:43:58.947 CIVIL STAND BY
19-0902114 1701 SALEM RD 2019-09-12 16:41:00.293 ACCIDENT - PROPERTY DAMAGE
19-0902112 19-10148 624 4TH AV 2019-09-12 16:34:32.530 ATTEMPT TO CONTACT
19-0902110 2019-09-12 16:04:35.967 ATTEMPT TO CONTACT
19-0902109 19-10150 526 BRUCE ST 2019-09-12 15:55:13.770 THEFT OF VEHICLE
19-0902108 2100 MEADOWLAKE RD 2019-09-12 15:50:39.290 RECKLESS DRIVER
19-0902107 526 BRUCE ST 2019-09-12 15:48:41.357 ATTEMPT TO CONTACT
19-0902102 2125 CALDWELL ST 2019-09-12 15:37:09.400 SUSPICIOUS VEHICLE
19-0902101 2302 COLLEGE AV 2019-09-12 15:36:54.610 CHECK ON THE WELFARE
19-0902099 1160 S SALEM RD 2019-09-12 15:25:17.297 CHECK ON THE WELFARE
19-0902097 19-10145 101 OAK ST 2019-09-12 14:40:07.263 SHOPLIFTING
19-0902096 602 1ST AV 2019-09-12 14:35:34.650 CHECK ON THE WELFARE
19-0902094 26 FAIR OAKS DR 2019-09-12 14:14:23.223 UNKNOWN TROUBLE
19-0902092 19-10143 1201 EXCHANGE AV 2019-09-12 14:04:13.730 ACCIDENT - PRIVATE PROPERTY
19-0902090 2200 MEADOWLAKE RD 2019-09-12 14:00:39.130 HARASSING COMMUNICATIONS
19-0902089 1500 MUSEUM RD 2019-09-12 13:55:00.660 ALARM - HOLD UP or PANIC
19-0902087 306 MILDRED ST 2019-09-12 13:37:35.470 SUPPLEMENT REPORT CALL
19-0902086 1601 S DONAGHEY AV 2019-09-12 13:31:56.520 INTOXICATED PERSON
19-0902085 122 OAKLAWN DR 2019-09-12 13:26:17.510 ALARM
19-0902083 19-10144 217 S CENTER ST 2019-09-12 13:19:08.660 ATTEMPT TO CONTACT
19-0902079 1620 MIDDLE RD 2019-09-12 13:03:38.703 DOMESTIC DISTURBANCE
19-0902078 1701 HAIRSTON AV 2019-09-12 13:03:05.053 CHECK ON THE WELFARE
19-0902077 2505 PRINCE ST 2019-09-12 12:49:30.000 CHECK ON THE WELFARE
19-0902076 855 SALEM RD 2019-09-12 12:46:11.180 ATTEMPT TO CONTACT
19-0902075 472 INGRAM ST 2019-09-12 12:39:27.337 TRESPASSING
19-0902074 201 SKYLINE DR 2019-09-12 12:31:29.680 RECKLESS DRIVER
19-0902072 2125 HARKRIDER ST 2019-09-12 12:23:21.577 CIVIL STAND BY
19-0902071 551 HARKRIDER ST 2019-09-12 12:01:22.480 SUPPLEMENT REPORT CALL
19-0902069 48 BRIERWOOD CIR 2019-09-12 11:58:55.360 ATTEMPT TO CONTACT
19-0902066 19-10141 3900 DAVE WARD DR 2019-09-12 11:45:02.417 ACCIDENT - PROPERTY DAMAGE
19-0902059 2740 DAVE WARD DR 2019-09-12 11:03:26.817 FOUND PROPERTY
19-0902057 1555 EXCHANGE AV 2019-09-12 11:01:15.300 ATTEMPT TO CONTACT
19-0902055 2205 STOUT ST 2019-09-12 10:56:01.297 ATTEMPT TO CONTACT
19-0902046 855 SALEM RD 2019-09-12 10:33:40.893 CHECK ON THE WELFARE
19-0902043 600 SKYLINE DR 2019-09-12 10:23:53.230 SUSPICIOUS PERSON
19-0902041 1412 MITCHELL ST 2019-09-12 10:17:51.920 THEFT OF PROPERTY
19-0902037 1335 ROBINS ST 2019-09-12 10:00:51.790 THEFT OF VEHICLE
19-0902036 475 ROBINS ST 2019-09-12 09:53:45.133 CIVIL MATTER
19-0902034 19-10139 1111 MAIN ST 2019-09-12 09:51:43.790 BATTERY REPORT
19-0902030 19-10137 1155 SKYLINE DR 2019-09-12 09:33:18.040 ACCIDENT - PROPERTY DAMAGE
19-0902029 19-10140 1390 ROBINS ST 2019-09-12 09:31:22.603 FOUND PROPERTY
19-0902028 810 PARKWAY ST 2019-09-12 09:28:43.960 INTOXICATED PERSON
19-0902027 19-10138 551 HARKRIDER ST 2019-09-12 09:22:25.387 FRAUD
19-0902026 19-10136 475 ROBINS ST 2019-09-12 09:22:24.730 TRESPASSING
19-0902023 19-10135 1902 HAIRSTON AV 2019-09-12 09:14:38.373 CRIMINAL MISCHIEF
19-0902017 105 MCDANIEL DR 2019-09-12 08:49:57.817 CIVIL MATTER
19-0902016 19-10133 2695 DAVE WARD DR 2019-09-12 08:41:50.097 CRIMINAL MISCHIEF
19-0902013 1105 PRAIRIE ST 2019-09-12 08:39:19.430 CIVIL MATTER
19-0902012 1600 WESTLAKE DR 2019-09-12 08:12:21.120 ABANDONED VEHICLE
19-0902010 19-10131 2695 DAVE WARD DR 2019-09-12 08:06:52.530 ARMED SUBJECT
19-0902006 19-10132 950 CRAIN DR 2019-09-12 07:47:00.900 ACCIDENT - PROPERTY DAMAGE
19-0902005 500 MITCHELL ST 2019-09-12 07:43:42.610 SUSPICIOUS PERSON
19-0902002 19-10130 2200 MEADOWLAKE RD 2019-09-12 07:16:59.233 ACCIDENT - PRIVATE PROPERTY
19-0902000 1115 E OAK ST 2019-09-12 07:05:45.810 CHECKING PERSON
19-0901998 1345 E OAK ST 2019-09-12 05:49:56.710 ALARM
19-0901997 2 HONEYSUCKLE LN 2019-09-12 04:46:41.057 STALLED VEHICLE
19-0901996 1352 COLLEGE AV 2019-09-12 04:25:21.330 CHECKING PERSON
19-0901995 401 2ND ST 2019-09-12 03:35:48.280 CHECKING BUILDING
19-0901994 475 ROBINS ST 2019-09-12 02:54:05.580 ATTEMPT TO CONTACT
19-0901993 475 ROBINS ST 2019-09-12 02:40:27.477 ATTEMPT TO CONTACT
19-0901992 1055 STEEL AV 2019-09-12 02:39:11.870 ALARM
19-0901990 260 SALEM RD 2019-09-12 02:21:47.227 CHECKING VEHICLE
19-0901989 2850 PRINCE ST 2019-09-12 02:15:47.900 CHECKING BUILDING
19-0901988 19-10128 375 MONROE ST 2019-09-12 02:04:53.397 CHECKING PERSON
19-0901987 2325 DAVE WARD DR 2019-09-12 02:04:03.527 AGENCY ASSIST
19-0901986 1120 SKYLINE DR 2019-09-12 01:41:49.270 CHECKING VEHICLE
19-0901985 799 CLARA DR 2019-09-12 01:33:53.190 CHECKING VEHICLE
19-0901980 201 SKYLINE DR 2019-09-12 01:03:39.580 CHECKING VEHICLE
19-0901979 311 OAK ST 2019-09-12 00:21:38.217 CHECKING PERSON
19-0901977 605 1ST AV 2019-09-11 23:56:39.463 911 HANGUP CALL
19-0901976 600 ELSINGER BLVD 2019-09-11 23:24:52.200 CHECKING VEHICLE
19-0901974 411 HELEN ST 2019-09-11 23:06:59.187 DOMESTIC DISTURBANCE
19-0901973 101 OAK ST 2019-09-11 22:45:21.417 ATTEMPT TO CONTACT
19-0901972 19-10127 475 ROBINS ST 2019-09-11 22:33:28.897 UNKNOWN TROUBLE
19-0901971 300 GRANDVIEW HEIGHTS DR 2019-09-11 22:15:30.000 CHECKING VEHICLE
19-0901968 515 HARKRIDER ST 2019-09-11 21:56:58.803 CHECKING VEHICLE
19-0901967 19-10126 875 SKYLINE DR 2019-09-11 21:31:26.767 ATTEMPT TO CONTACT
19-0901961 3910 IRBY DR 2019-09-11 20:33:48.170 ATTEMPT TO CONTACT
19-0901960 1555 EXCHANGE AV 2019-09-11 20:29:10.970 CITIZEN ASSIST
19-0901958 2125 SANDERS ST 2019-09-11 20:06:14.443 SUSPICIOUS PERSON
19-0901957 1600 CENTENNIAL CLUB DR 2019-09-11 20:01:19.740 911 HANGUP CALL
19-0901956 2900 DAVE WARD DR 2019-09-11 20:00:35.850 RECKLESS DRIVER
19-0901951 19-10123 530 S DONAGHEY AV 2019-09-11 19:47:12.213 ACCIDENT - PRIVATE PROPERTY
19-0901949 2900 PRINCE ST 2019-09-11 19:13:46.273 STALLED VEHICLE
19-0901948 100 INGRAM ST 2019-09-11 19:13:34.953 ATTEMPT TO CONTACT
19-0901947 2165 NATURE TRL 2019-09-11 19:11:42.657 ALARM
19-0901945 630 CHERUB DR 2019-09-11 18:53:35.273 911 HANGUP CALL
19-0901944 825 OAK ST 2019-09-11 18:42:22.670 TRESPASSING
19-0901943 80 EXCHANGE AV 2019-09-11 18:34:53.177 SUPPLEMENT REPORT CALL
19-0901942 19-10124 855 SALEM RD 2019-09-11 18:34:52.847 THEFT OF PROPERTY
19-0901941 19-10121 2101 TYLER ST 2019-09-11 18:29:07.557 ACCIDENT - PROPERTY DAMAGE
19-0901940 1785 SOUTHERN HILLS DR 2019-09-11 18:21:17.830 CHECK ON THE WELFARE
19-0901939 19-10120 80 EXCHANGE AV 2019-09-11 18:13:06.003 THEFT OF PROPERTY
19-0901938 1308 DAVIS ST 2019-09-11 18:11:15.357 BURGLARY
19-0901937 3602 OLD MORRILTON HWY 2019-09-11 18:08:56.307 CHECK ON THE WELFARE
19-0901936 1900 HUTTO ST 2019-09-11 18:00:27.627 DOMESTIC DISTURBANCE
19-0901935 19-10119 2455 WASHINGTON AV 2019-09-11 17:55:45.583 ACCIDENT - PRIVATE PROPERTY
19-0901932 19-10118 1901 E OAK ST 2019-09-11 17:49:44.487 ACCIDENT - PROPERTY DAMAGE
19-0901931 1263 LINCOLN ST 2019-09-11 17:46:55.147 NO CONTACT ORDER VIOLATION
19-0901930 2690 DONAGHEY AV 2019-09-11 17:29:37.083 ALARM - BANK
19-0901929 1685 GARDENIA 2019-09-11 17:22:17.567 ATTEMPT TO CONTACT
19-0901927 19-10117 705 CLUB LN 2019-09-11 16:45:10.703 FRAUD
19-0901926 19-10116 4615 GRAHAM DR 2019-09-11 16:43:06.863 LOST PROPERTY
19-0901924 2302 COLLEGE AV 2019-09-11 16:32:01.950 SUPPLEMENT REPORT CALL
19-0901923 1105 E OAK ST 2019-09-11 16:23:51.757 ACCIDENT - HIT AND RUN
19-0901922 560 HARKRIDER ST 2019-09-11 16:15:18.850 CITIZEN ASSIST
19-0901921 1105 PRAIRIE ST 2019-09-11 16:14:35.727 ATTEMPT TO CONTACT
19-0901920 19-10115 2310 ROBINSON AV 2019-09-11 16:12:39.410 ACCIDENT - PRIVATE PROPERTY
19-0901918 375 MONROE ST 2019-09-11 15:39:31.120 ATTEMPT TO CONTACT
19-0901915 19-10114 401 E OAK ST 2019-09-11 15:29:14.033 ACCIDENT - PROPERTY DAMAGE
19-0901914 2840 DAVE WARD DR 2019-09-11 15:26:50.147 REPOSSESSION
19-0901911 1595 EDGESTONE CIR 2019-09-11 14:58:00.193 CIVIL MATTER
19-0901910 500 AMITY RD 2019-09-11 14:54:59.203 VEHICLE TOW
19-0901906 19-10112 1260 S AMITY RD 2019-09-11 14:31:54.483 FORGERY
19-0901904 705 SALEM RD 2019-09-11 14:19:02.943 AGENCY ASSIST
19-0901903 4202 MALLARD LN 2019-09-11 14:15:19.740 SUPPLEMENT REPORT CALL
19-0901902 19-10109 301 DONAGHEY AV 2019-09-11 14:10:22.607 ACCIDENT - PROPERTY DAMAGE
19-0901898 124 I40EB 2019-09-11 14:03:42.430 RECKLESS DRIVER
19-0901897 4750 STOCKTON RD 2019-09-11 13:55:19.933 FRAUD
19-0901894 336 OLIVER ST 2019-09-11 13:43:46.960 SUPPLEMENT REPORT CALL
19-0901893 375 MONROE ST 2019-09-11 13:39:44.647 VEHICLE TOW
19-0901892 19-10110 2302 COLLEGE AV 2019-09-11 13:36:54.500 THEFT OF PROPERTY
19-0901891 2008 CAPEWOOD DR 2019-09-11 13:14:22.940 SUPPLEMENT REPORT CALL
19-0901887 19-10106 3900 DAVE WARD DR 2019-09-11 12:57:44.310 ACCIDENT - PRIVATE PROPERTY
19-0901883 3430 IRBY DR 2019-09-11 12:21:11.757 DOMESTIC DISTURBANCE
19-0901882 2425 DAVE WARD DR 2019-09-11 12:11:59.737 VEHICLE TOW
19-0901880 19-10104 2401 CHRISTINA LN 2019-09-11 11:55:34.717 NEGLECT
19-0901879 1600 E OAK ST 2019-09-11 11:45:50.730 ENDANGERING WELFARE OF MINOR
19-0901877 504 E OAK ST 2019-09-11 11:40:28.947 CHECK ON THE WELFARE
19-0901876 19-10103 400 SKYLINE DR 2019-09-11 11:37:33.290 ACCIDENT - PROPERTY DAMAGE
19-0901875 401 2ND ST 2019-09-11 11:36:57.017 SUPPLEMENT REPORT CALL
19-0901873 19-10102 17 NORTHWOOD DR 2019-09-11 11:31:42.570 HARASSING COMMUNICATIONS
19-0901871 2080 BROADVIEW AV 2019-09-11 11:16:49.410 ATTEMPT TO CONTACT
19-0901869 2007 CLEVELAND AV 2019-09-11 11:04:14.960 CHECK ON THE WELFARE
19-0901868 108 GREEN VALLEY DR 2019-09-11 10:59:49.750 ATTEMPT TO CONTACT
19-0901867 19-10100 1802 COLLEGE AV 2019-09-11 10:50:12.773 ACCIDENT - PROPERTY DAMAGE
19-0901866 336 OLIVER ST 2019-09-11 10:42:51.923 CIVIL STAND BY
19-0901865 4820 BAY HILL DR 2019-09-11 10:42:29.727 ALARM
19-0901864 310 FARRIS RD 2019-09-11 10:30:46.343 CIVIL MATTER
19-0901863 4 MEDICAL LN 2019-09-11 10:11:34.640 ABANDONED VEHICLE
19-0901861 3034 DONNELL RIDGE RD 2019-09-11 09:59:16.667 ALARM
19-0901860 1105 PRAIRIE ST 2019-09-11 09:54:15.360 ATTEMPT TO CONTACT
19-0901859 2425 DAVE WARD DR 2019-09-11 09:53:06.680 ABANDONED VEHICLE
19-0901858 375 MONROE ST 2019-09-11 09:52:18.917 TRESPASSING
19-0901857 500 AMITY RD 2019-09-11 09:49:44.200 ABANDONED VEHICLE
19-0901856 1001 MCNUTT RD 2019-09-11 09:45:48.303 ATTEMPT TO CONTACT
19-0901855 4055 GLENWOOD DR 2019-09-11 09:44:47.147 THEFT OF PROPERTY
19-0901853 3503 NUTTERS CHAPEL RD 2019-09-11 09:39:34.200 CIVIL STAND BY
19-0901848 401 2ND ST 2019-09-11 08:34:37.150 TRESPASSING
19-0901846 3335 BLUEBONNET LN 2019-09-11 08:19:38.070 ALARM
19-0901842 445 BERNARD DR 2019-09-11 08:10:50.213 FOUND PROPERTY
19-0901841 19-10098 1900 COLLEGE AV 2019-09-11 08:04:00.603 ACCIDENT - PROPERTY DAMAGE
19-0901838 505 SALEM RD 2019-09-11 07:55:40.393 SUSPICIOUS PERSON
19-0901837 100 S DAVIS ST 2019-09-11 07:48:39.713 STALLED VEHICLE
19-0901836 375 MONROE ST 2019-09-11 07:18:06.160 LOUD NOISE-MUSIC
19-0901835 1235 CROSSPOINT RD 2019-09-11 07:07:26.340 CRIMINAL MISCHIEF
19-0901834 3900 DAVE WARD DR 2019-09-11 06:39:38.573 RECKLESS DRIVER
19-0901833 550 E DAVE WARD DR 2019-09-11 06:17:02.727 CITIZEN ASSIST
19-0901832 550 E DAVE WARD DR 2019-09-11 05:22:21.260 STALLED VEHICLE
19-0901830 19-10097 401 2ND ST 2019-09-11 04:20:36.280 PROWLER
19-0901829 500 MILL ST 2019-09-11 04:04:06.780 PURSUIT DRILL
19-0901827 1218 HAMILTON ST 2019-09-11 02:32:58.090 OPEN DOOR/WINDOW/FENCE
19-0901826 1361 MCKAY AV 2019-09-11 02:27:28.427 CHECKING VEHICLE
19-0901825 19-10096 336 OLIVER ST 2019-09-11 02:18:22.253 DOMESTIC DISTURBANCE
19-0901824 605 1ST AV 2019-09-11 02:13:37.813 ATTEMPT TO CONTACT
19-0901823 2550 PRINCE ST 2019-09-11 01:55:02.770 CHECKING VEHICLE
19-0901822 3100 IRBY DR 2019-09-11 01:51:40.773 REPOSSESSION
19-0901821 650 ELSINGER BLVD 2019-09-11 01:24:14.770 CHECKING VEHICLE
19-0901817 700 ELSINGER BLVD 2019-09-11 00:20:46.390 CHECKING VEHICLE
19-0901815 640 CHERUB DR 2019-09-11 00:00:46.583 ATTEMPT TO CONTACT
19-0901814 810 MERRIMAN ST 2019-09-10 23:47:59.083 SUSPICIOUS PERSON
19-0901813 1 CADRON SETTLEMENT PARK RD 2019-09-10 23:45:52.933 CHECKING BUILDING
19-0901812 1815 OLD MORRILTON HWY 2019-09-10 23:40:09.103 CHECKING BUILDING
19-0901810 1325 OLD MORRILTON HWY 2019-09-10 23:12:03.363 ALARM
19-0901809 19-10095 3900 DAVE WARD DR 2019-09-10 23:07:40.210 HARASSMENT
19-0901807 132 EVE LN 2019-09-10 23:04:17.970 CHECK ON THE WELFARE
19-0901806 371 WATKINS ST 2019-09-10 22:48:31.160 BURGLARY
19-0901805 3705 MCCONNELL DR 2019-09-10 22:46:24.033 PROWLER
19-0901804 545 E DAVE WARD DR 2019-09-10 22:41:34.593 ATTEMPT TO CONTACT
19-0901803 300 S DONAGHEY AV 2019-09-10 22:33:05.333 UNKNOWN TROUBLE
19-0901801 1266 S AMITY RD 2019-09-10 22:27:23.203 ALARM
19-0901800 1610 PRINCE ST 2019-09-10 22:23:57.887 SUSPICIOUS PERSON
19-0901796 19-10091 2235 DAVE WARD DR 2019-09-10 21:53:32.500 ACCIDENT - PRIVATE PROPERTY
19-0901795 2300 HOGAN LN 2019-09-10 21:52:48.897 RECKLESS DRIVER
19-0901794 200 S HARKRIDER DR 2019-09-10 21:37:19.367 ALARM
19-0901793 19-10090 1120 EAST GERMAN LN 2019-09-10 21:14:43.593 FOUND PROPERTY
19-0901788 19-10089 4815 PARK PLACE DR 2019-09-10 20:44:06.983 LOST-STOLEN LICENSE PLATE
19-0901787 99 MEDICAL LN 2019-09-10 20:29:08.663 CHECKING VEHICLE
19-0901785 1008 E OAK ST 2019-09-10 20:11:24.960 ALARM
19-0901784 2425 DAVE WARD DR 2019-09-10 20:04:57.767 BURGLARY
19-0901777 2310 ROBINSON AV 2019-09-10 19:14:53.560 PARKING VIOLATION
19-0901776 501 1ST ST 2019-09-10 19:09:36.063 RECKLESS DRIVER
19-0901774 1175 MORNINGSIDE DR 2019-09-10 19:02:44.887 THEFT OF VEHICLE
19-0901772 924 HALTER RD 2019-09-10 18:50:14.887 DISTURBANCE
19-0901771 1670 DUKE ST 2019-09-10 18:42:25.513 ATTEMPT TO CONTACT
19-0901768 19-10086 1325 OLD MORRILTON HWY 2019-09-10 18:25:48.960 CHECKING VEHICLE
19-0901765 3745 HAYDEN CV 2019-09-10 17:57:41.820 ALARM
19-0901764 1670 DUKE ST 2019-09-10 17:43:08.970 ATTEMPT TO CONTACT
19-0901763 2125 CALDWELL ST 2019-09-10 17:17:42.747 CHECK ON THE WELFARE
19-0901762 500 SALEM RD 2019-09-10 17:16:04.803 STALLED VEHICLE
19-0901761 19-10085 2255 MILLWOOD DR 2019-09-10 17:12:04.557 ACCIDENT - PROPERTY DAMAGE
19-0901760 300 MILDRED ST 2019-09-10 16:55:19.977 SUPPLEMENT REPORT CALL
19-0901759 777 S EAST GERMAN LN 2019-09-10 16:54:45.197 SHOTS FIRED
19-0901758 900 FARRIS RD 2019-09-10 16:50:14.210 CIVIL STAND BY
19-0901757 1080 S AMITY RD 2019-09-10 16:48:48.613 CHECK ON THE WELFARE
19-0901754 19-10084 500 SOUTH GERMAN LN 2019-09-10 16:40:43.930 MISDEMEANOR WARRANT SERVICE
19-0901753 2645 APPLE BLOSSOM 2019-09-10 16:31:43.860 ATTEMPT TO CONTACT
19-0901752 1400 OLD MORRILTON HWY 2019-09-10 16:29:55.963 ATTEMPT TO CONTACT
19-0901751 5380 APRIL DR 2019-09-10 16:27:10.767 SUPPLEMENT REPORT CALL
19-0901750 850 OAK ST 2019-09-10 16:24:21.140 ACCIDENT - PRIVATE PROPERTY
19-0901749 19-10083 2270 REMINGTON RD 2019-09-10 16:13:22.087 DOMESTIC DISTURBANCE
19-0901748 19-10082 500 SOUTH GERMAN LN 2019-09-10 16:11:02.720 MISDEMEANOR WARRANT SERVICE
19-0901746 19-10081 646 S HARKRIDER DR 2019-09-10 15:53:16.293 FRAUD
19-0901745 19-10080 1155 DAVE WARD DR 2019-09-10 15:49:00.290 ACCIDENT - PROPERTY DAMAGE
19-0901742 19-10079 504 E OAK ST 2019-09-10 15:35:16.437 ACCIDENT - PROPERTY DAMAGE
19-0901741 500 SOUTH HAMPTON DR 2019-09-10 15:33:28.307 TRAFFIC PROBLEM-CONTROL
19-0901740 1000 WESTERN AV 2019-09-10 15:25:17.243 CITY ORDINANCE VIOLATION
19-0901738 210 FOUR WINDS DR 2019-09-10 15:20:05.540 CIVIL MATTER
19-0901732 335 EAST GERMAN LN 2019-09-10 14:59:36.337 BARKING DOG COMPLAINT
19-0901729 1801 E OAK ST 2019-09-10 14:56:10.557 PARKING VIOLATION
19-0901722 505 OAK ST 2019-09-10 14:13:56.283 CIVIL MATTER
19-0901721 3115 PEBBLE BEACH DR 2019-09-10 14:12:32.590 CHECK ON THE WELFARE
19-0901719 19-10078 2425 DAVE WARD DR 2019-09-10 14:04:03.070 TERRORISTIC THREATENING
19-0901718 923 PARKWAY ST 2019-09-10 13:56:15.757 ALARM - HOLD UP or PANIC
19-0901717 19-10077 1155 SKYLINE DR 2019-09-10 13:48:37.267 BREAKING OR ENTERING
19-0901715 1361 DAVIS ST 2019-09-10 13:26:16.140 ATTEMPT TO CONTACT
19-0901714 19-10076 1601 HARTJE LN 2019-09-10 13:21:02.957 ACCIDENT - PROPERTY DAMAGE
19-0901712 409 COMMERCE RD 2019-09-10 13:19:02.463 CIVIL MATTER
19-0901711 46 WREN CIR 2019-09-10 13:15:03.227 FELONY WARRANT SERVICE
19-0901708 19-10074 820 E OAK ST 2019-09-10 12:46:22.330 ACCIDENT - PERSONAL INJURY
19-0901707 900 E SIEBENMORGEN RD 2019-09-10 12:39:50.603 SUPPLEMENT REPORT CALL
19-0901705 780 EQUITY AV 2019-09-10 12:36:46.403 SUSPICIOUS VEHICLE
19-0901704 19-10075 331 MITCHELL ST 2019-09-10 12:28:32.953 CHECKING PERSON
19-0901702 19-10072 201 SKYLINE DR 2019-09-10 12:15:35.170 TERRORISTIC THREATENING
19-0901701 1405 ROBINS ST 2019-09-10 12:13:49.067 CHECK ON THE WELFARE
19-0901700 19-10073 1069 DONAGHEY AV 2019-09-10 12:09:13.783 HARASSING COMMUNICATIONS
19-0901699 306 MILDRED ST 2019-09-10 11:55:49.600 SUPPLEMENT REPORT CALL
19-0901694 19-10070 2455 WASHINGTON AV 2019-09-10 11:19:19.183 HARASSMENT
19-0901692 19-10068 2015 RICH SMITH LN 2019-09-10 11:11:27.103 ASSAULT
19-0901690 1935 SIMMS ST 2019-09-10 11:09:54.577 SUPPLEMENT REPORT CALL
19-0901683 1525 CLIFTON ST 2019-09-10 10:42:38.880 NO CONTACT ORDER VIOLATION
19-0901682 101 OAK ST 2019-09-10 10:40:45.350 PARKING VIOLATION
19-0901680 2301 COLLEGE AV 2019-09-10 10:36:29.347 CHECK ON THE WELFARE
19-0901676 702 S DONAGHEY AV 2019-09-10 10:27:22.770 CHECKING VEHICLE
19-0901673 19-10066 810 PARKWAY ST 2019-09-10 10:18:17.793 MISDEMEANOR WARRANT SERVICE
19-0901672 19-10065 810 PARKWAY ST 2019-09-10 10:17:56.350 MISDEMEANOR WARRANT SERVICE
19-0901671 19-10064 810 PARKWAY ST 2019-09-10 10:17:35.093 MISDEMEANOR WARRANT SERVICE
19-0901669 1105 E OAK ST 2019-09-10 10:13:32.000 VEHICLE TOW
19-0901667 19-10067 1260 S AMITY RD 2019-09-10 09:57:00.493 THEFT OF PROPERTY
19-0901666 19-10063 375 E OAK ST 2019-09-10 09:47:14.190 FRAUD
19-0901661 950 HOGAN LN 2019-09-10 09:08:29.223 ALARM - BANK
19-0901657 19-10062 1105 PRAIRIE ST 2019-09-10 09:00:18.727 MISDEMEANOR WARRANT SERVICE
19-0901655 215 SKYLINE DR 2019-09-10 08:56:58.190 ALARM
19-0901654 2500 COLLEGE AV 2019-09-10 08:51:41.250 LOG VEHICLE
19-0901653 19-10061 3700 COLLEGE AV 2019-09-10 08:47:14.543 ACCIDENT - PRIVATE PROPERTY
19-0901652 2200 MEADOWLAKE RD 2019-09-10 08:35:08.467 HARASSING COMMUNICATIONS
19-0901648 1901 E OAK ST 2019-09-10 07:37:29.493 RECKLESS DRIVER
19-0901647 132 EVE LN 2019-09-10 07:33:47.730 TRAFFIC PROBLEM-CONTROL
19-0901646 501 DONAGHEY AV 2019-09-10 07:33:01.900 TRAFFIC LIGHT PROBLEM
19-0901645 2100 SALEM RD 2019-09-10 07:32:45.157 ATTEMPT TO CONTACT
19-0901643 2730 DAVE WARD DR 2019-09-10 07:19:13.243 TRESPASSING
19-0901642 1105 SKYLINE DR 2019-09-10 07:01:15.440 SUPPLEMENT REPORT CALL
19-0901639 5380 APRIL DR 2019-09-10 06:44:40.667 SUPPLEMENT REPORT CALL
19-0901637 19-10060 24 HILTON DR 2019-09-10 06:30:36.180 ACCIDENT - PERSONAL INJURY
19-0901636 19-10059 600 ELSINGER BLVD 2019-09-10 05:52:31.193 ALARM
19-0901635 5380 APRIL DR 2019-09-10 05:43:19.333 ATTEMPT TO CONTACT
19-0901632 1700 ALTUS ST 2019-09-10 04:06:15.830 CHECK ON THE WELFARE
19-0901631 5110 OLD MORRILTON HWY 2019-09-10 03:53:39.213 SUSPICIOUS ACTIVITY
19-0901630 800 S DONAGHEY AV 2019-09-10 03:24:30.037 CHECKING VEHICLE
19-0901629 19-10058 2890 DAVE WARD DR 2019-09-10 03:22:03.717 ATTEMPT TO CONTACT
19-0901626 19-10057 810 MUSEUM RD 2019-09-10 02:18:08.240 DOMESTIC DISTURBANCE
19-0901625 19-10056 815 E OAK ST 2019-09-10 02:09:02.163 CHECK ON THE WELFARE
19-0901623 406 6TH ST 2019-09-10 01:49:33.450 BARKING DOG COMPLAINT
19-0901621 550 SALEM RD 2019-09-10 01:12:53.780 ALARM
19-0901618 1685 JACKSON DR 2019-09-10 00:52:35.713 FIRE DEPT ASSIST
19-0901616 545 AUDUBON PL 2019-09-10 00:38:14.367 OPEN DOOR/WINDOW/FENCE
19-0901615 1750 VILLAGE COMMONS DR 2019-09-10 00:35:38.053 BARKING DOG COMPLAINT
19-0901613 1345 E OAK ST 2019-09-10 00:28:26.887 ALARM
19-0901612 1363 MITCHELL ST 2019-09-10 00:20:11.833 TRAFFIC PROBLEM-CONTROL
19-0901610 3400 IRBY DR 2019-09-09 23:48:16.500 REPOSSESSION
19-0901609 99 SUNRISE DR 2019-09-09 23:36:53.853 TRAFFIC PROBLEM-CONTROL
19-0901608 2200 BRUCE ST 2019-09-09 23:28:07.010 WEATHER RELATED CALLS-PROBLEMS
19-0901606 1900 TYLER ST 2019-09-09 23:10:57.883 TRAFFIC PROBLEM-CONTROL
19-0901605 2019-09-09 23:02:28.907 WEATHER RELATED CALLS-PROBLEMS
19-0901604 19-10054 5380 APRIL DR 2019-09-09 23:02:18.060 HARASSING COMMUNICATIONS
19-0901603 2125 HARKRIDER ST 2019-09-09 23:00:24.220 ALARM
19-0901601 19-10053 3900 DAVE WARD DR 2019-09-09 22:57:01.323 ACCIDENT - PROPERTY DAMAGE
19-0901600 717 PARKWAY ST 2019-09-09 22:50:26.260 ALARM
19-0901597 2500 COLLEGE AV 2019-09-09 22:48:56.730 TRAFFIC PROBLEM-CONTROL
19-0901596 1100 E OAK ST 2019-09-09 22:46:29.243 TRAFFIC PROBLEM-CONTROL
19-0901595 2245 E OAK ST 2019-09-09 22:45:03.200 ALARM
19-0901594 2905 PRINCE ST 2019-09-09 22:43:21.837 ALARM
19-0901593 100 LOCUST AV 2019-09-09 22:42:01.523 WEATHER RELATED CALLS-PROBLEMS
19-0901591 1160 HOGAN LN 2019-09-09 22:38:51.110 CHECK ON THE WELFARE
19-0901590 3430 IRBY DR 2019-09-09 22:38:20.963 SUSPICIOUS VEHICLE
19-0901589 1775 OLD MORRILTON HWY 2019-09-09 22:33:41.917 DOMESTIC DISTURBANCE
19-0901587 300 WEDGEWOOD PT 2019-09-09 22:21:47.693 REPOSSESSION
19-0901586 2903 JOANNA DR 2019-09-09 22:17:35.277 ALARM - HOLD UP or PANIC
19-0901585 4815 PARK PLACE DR 2019-09-09 22:11:46.920 LOST-STOLEN LICENSE PLATE
19-0901584 311 OAK ST 2019-09-09 22:01:28.523 SUSPICIOUS PERSON
19-0901581 19-10051 2603 DAVE WARD DR 2019-09-09 21:36:13.627 BATTERY REPORT
19-0901578 2025 ROBINS ST 2019-09-09 21:23:44.377 ACCIDENT - PROPERTY DAMAGE
19-0901577 622 4TH AV 2019-09-09 21:13:07.683 911 HANGUP CALL
19-0901576 19-10052 2425 EIGHTEEN LP 2019-09-09 20:58:23.983 HARASSING COMMUNICATIONS
19-0901574 19-10048 2302 COLLEGE AV 2019-09-09 20:47:27.347 ACCIDENT - PRIVATE PROPERTY
19-0901573 1090 SKYLINE DR 2019-09-09 20:45:35.370 REPOSSESSION
19-0901571 1115 E OAK ST 2019-09-09 20:33:34.570 SUPPLEMENT REPORT CALL
19-0901570 19-10047 2235 E OAK ST 2019-09-09 20:30:45.483 NO CONTACT ORDER VIOLATION
19-0901568 1425 ROBINS ST 2019-09-09 20:10:03.363 SHOTS FIRED
19-0901565 4 WEST POINT DR 2019-09-09 20:00:43.440 CHECK ON THE WELFARE
19-0901559 19-10045 821 HOGAN LN 2019-09-09 19:35:13.577 ACCIDENT - PRIVATE PROPERTY
19-0901557 19-10044 2255 STURGIS RD 2019-09-09 18:53:25.510 ATTEMPT TO CONTACT
19-0901555 799 CENTRAL LANDING BLVD 2019-09-09 18:46:07.513 ACCIDENT - PRIVATE PROPERTY
19-0901554 571 ELSINGER BLVD 2019-09-09 18:43:42.727 BATTERY REPORT
19-0901553 19-10043 3900 DAVE WARD DR 2019-09-09 18:38:40.493 ACCIDENT - PRIVATE PROPERTY
19-0901552 545 SKYLINE DR 2019-09-09 18:37:40.167 CITIZEN ASSIST
19-0901551 845 CHAPEL HILL DR 2019-09-09 18:27:45.643 ALARM
19-0901550 2100 DAVE WARD DR 2019-09-09 18:22:57.407 DOMESTIC DISTURBANCE
19-0901548 129 I40WB 2019-09-09 18:09:40.470 ACCIDENT - PROPERTY DAMAGE
19-0901547 1720 OLD MORRILTON HWY 2019-09-09 18:04:55.383 INDECENT EXPOSURE
19-0901545 19-10041 600 E DAVE WARD DR 2019-09-09 17:07:48.320 ACCIDENT - PROPERTY DAMAGE
19-0901544 19-10040 300 S DONAGHEY AV 2019-09-09 16:51:41.047 HARASSING COMMUNICATIONS
19-0901543 1115 PARKWAY ST 2019-09-09 16:39:53.353 SUPPLEMENT REPORT CALL
19-0901542 2019-09-09 16:29:38.560 SUPPLEMENT REPORT CALL
19-0901541 19-10039 101 OAK ST 2019-09-09 16:28:24.910 THEFT OF PROPERTY
19-0901539 2019-09-09 16:25:41.570 SUPPLEMENT REPORT CALL
19-0901536 409 COMMERCE RD 2019-09-09 16:04:37.240 CIVIL MATTER
19-0901535 2019-09-09 15:57:59.063 ATTEMPT TO CONTACT
19-0901534 2125 HARKRIDER ST 2019-09-09 15:52:51.373 CITIZEN ASSIST
19-0901533 1150 S AMITY RD 2019-09-09 15:50:24.140 SUPPLEMENT REPORT CALL
19-0901530 901 E OAK ST 2019-09-09 15:44:08.220 STALLED VEHICLE
19-0901528 1318 HILLCREST DR 2019-09-09 15:40:16.663 911 HANGUP CALL
19-0901526 545 SKYLINE DR 2019-09-09 15:34:56.300 SUPPLEMENT REPORT CALL
19-0901524 19-10037 302 S SALEM RD 2019-09-09 15:33:01.403 ACCIDENT - PROPERTY DAMAGE
19-0901517 2019-09-09 14:59:40.870 ATTEMPT TO CONTACT
19-0901516 19-10036 900 E SIEBENMORGEN RD 2019-09-09 14:55:50.030 RECKLESS DRIVER
19-0901515 1075 S HARKRIDER DR 2019-09-09 14:49:00.347 CHECKING PERSON
19-0901511 1915 RICH SMITH LN 2019-09-09 14:29:04.533 TRESPASSING
19-0901510 2019-09-09 14:25:19.210 ATTEMPT TO CONTACT
19-0901508 646 S HARKRIDER DR 2019-09-09 14:14:43.783 THEFT OF PROPERTY
19-0901506 955 SOUTH GERMAN LN 2019-09-09 14:09:07.297 SERVING SUBPOENA
19-0901504 1635 HOSTA 2019-09-09 13:46:39.310 BURGLARY
19-0901502 19-10032 2008 CAPEWOOD DR 2019-09-09 13:23:00.230 TRESPASSING
19-0901501 1902 HAIRSTON AV 2019-09-09 13:21:13.100 CRIMINAL MISCHIEF
19-0901500 1145 FRENCH DR 2019-09-09 13:19:31.380 INTERFERENCE WITH CUSTODY
19-0901499 1115 E OAK ST 2019-09-09 13:12:36.667 SUSPICIOUS PERSON
19-0901498 19-10033 4300 COLLEGE AV 2019-09-09 13:07:36.500 ACCIDENT - PROPERTY DAMAGE
19-0901497 705 MUSEUM RD 2019-09-09 13:04:34.423 SUSPICIOUS PERSON
19-0901496 2490 TYLER ST 2019-09-09 13:02:08.790 SERVING SUBPOENA
19-0901495 655 ELSINGER BLVD 2019-09-09 13:02:03.467 SUPPLEMENT REPORT CALL
19-0901494 1500 HARKRIDER ST 2019-09-09 13:01:52.590 STALLED VEHICLE
19-0901490 1109 MAIN ST 2019-09-09 12:49:34.703 ATTEMPT TO CONTACT
19-0901488 414 OAK ST 2019-09-09 12:40:31.757 SUSPICIOUS PERSON
19-0901487 1925 HENRY ST 2019-09-09 12:37:14.310 ATTEMPT TO CONTACT
19-0901485 19-10030 301 DONAGHEY AV 2019-09-09 12:05:37.453 ACCIDENT - PROPERTY DAMAGE
19-0901482 19-10031 1200 S AMITY RD 2019-09-09 11:53:38.717 ACCIDENT - PROPERTY DAMAGE
19-0901480 1100 BRUCE ST 2019-09-09 11:40:12.447 DISTURBANCE
19-0901477 2019-09-09 11:31:21.300 ATTEMPT TO CONTACT
19-0901475 4631 QUAIL RUN CIR 2019-09-09 11:18:58.887 SUPPLEMENT REPORT CALL
19-0901470 19-10028 400 S DONAGHEY AV 2019-09-09 10:59:25.223 THEFT OF PROPERTY
19-0901469 19-10029 2302 COLLEGE AV 2019-09-09 10:59:03.340 THEFT OF PROPERTY
19-0901463 600 SOUTH GERMAN LN 2019-09-09 10:47:10.843 FELONY WARRANT SERVICE
19-0901462 5305 BAY TOWN DR 2019-09-09 10:46:45.450 SUSPICIOUS PERSON
19-0901461 2570 EIGHTEEN LP 2019-09-09 10:38:19.307 ALARM
19-0901457 2725 GLOHAVEN DR 2019-09-09 10:22:08.257 ATTEMPT TO CONTACT
19-0901451 2499 MUSEUM RD 2019-09-09 09:54:50.767 STALLED VEHICLE
19-0901450 2200 MEADOWLAKE RD 2019-09-09 09:46:37.683 HARASSING COMMUNICATIONS
19-0901449 1050 SPENCER ST 2019-09-09 09:17:35.410 ATTEMPT TO CONTACT
19-0901446 19-10026 1720 S SALEM RD 2019-09-09 09:07:51.940 BREAKING OR ENTERING
19-0901440 1105 PRAIRIE ST 2019-09-09 08:51:20.983 VEHICLE TOW
19-0901437 12 BROADMOOR DR 2019-09-09 08:49:00.520 FRAUD
19-0901436 1405 BLUSTERY WAY 2019-09-09 08:45:37.630 CHECK ON THE WELFARE
19-0901435 530 S DONAGHEY AV 2019-09-09 08:44:32.587 PARKING VIOLATION
19-0901434 530 S DONAGHEY AV 2019-09-09 08:38:14.767 PARKING VIOLATION
19-0901430 19-10024 2555 APPLE BLOSSOM 2019-09-09 08:17:31.900 BATTERY REPORT
19-0901427 675 AMITY RD 2019-09-09 08:06:06.367 ALARM
19-0901424 3200 TYLER ST 2019-09-09 07:45:27.963 TRAFFIC LIGHT PROBLEM
19-0901422 2360 SANDERS ST 2019-09-09 07:38:01.690 SUPPLEMENT REPORT CALL
19-0901421 19-10023 2799 SALEM RD 2019-09-09 07:36:14.467 ACCIDENT - PROPERTY DAMAGE
19-0901419 19-10022 5325 SANSON DR 2019-09-09 07:21:14.850 LOST-STOLEN LICENSE PLATE
19-0901418 1345 E OAK ST 2019-09-09 06:51:05.763 ALARM
19-0901416 1000 BOB COURTWAY DR 2019-09-09 06:40:16.973 RECKLESS DRIVER
19-0901415 1155 SKYLINE DR 2019-09-09 05:43:28.343 CHECKING PERSON
19-0901414 215 SKYLINE DR 2019-09-09 05:37:03.243 CHECKING VEHICLE
19-0901413 525 SKYLINE DR 2019-09-09 05:33:14.110 CHECKING VEHICLE
19-0901412 1115 E OAK ST 2019-09-09 05:25:07.867 ALARM - HOLD UP or PANIC
19-0901411 545 SKYLINE DR 2019-09-09 05:23:49.447 DISTURBANCE
19-0901410 1900 TYLER ST 2019-09-09 04:48:57.750 CHECKING VEHICLE
19-0901409 1405 ROBINS ST 2019-09-09 04:24:14.340 CHECKING VEHICLE
19-0901407 475 ROBINS ST 2019-09-09 03:46:09.560 CHECKING PERSON
19-0901406 475 ROBINS ST 2019-09-09 03:34:07.833 CHECKING PERSON
19-0901405 201 LOCUST AV 2019-09-09 03:00:19.403 LOUD NOISE-MUSIC
19-0901404 545 E DAVE WARD DR 2019-09-09 02:48:32.020 PURSUIT DRILL
19-0901402 1621 WESTLAKE DR 2019-09-09 02:20:50.980 DOMESTIC DISTURBANCE
19-0901401 311 OAK ST 2019-09-09 02:08:46.957 CITIZEN ASSIST
19-0901400 2325 DAVE WARD DR 2019-09-09 02:06:36.747 CHECKING PERSON
19-0901399 260 SALEM RD 2019-09-09 01:55:21.260 CHECKING VEHICLE
19-0901397 901 E OAK ST 2019-09-09 01:39:54.220 CHECKING PERSON
19-0901396 475 ROBINS ST 2019-09-09 01:31:03.663 CHECKING PERSON
19-0901394 963 JOSEPH DR 2019-09-09 01:21:34.273 ALARM
19-0901392 2125 HARKRIDER ST 2019-09-09 00:50:48.087 CHECKING PERSON
19-0901390 19-10020 414 DURHAM ST 2019-09-09 00:22:36.060 THEFT OF VEHICLE
19-0901389 13 SEDGEFIELD DR 2019-09-09 00:16:32.443 SUSPICIOUS VEHICLE
19-0901386 3350 PEBBLE BEACH DR 2019-09-08 23:31:33.383 LOUD NOISE-MUSIC
19-0901384 2845 PEBBLE BEACH DR 2019-09-08 23:11:47.083 LOUD NOISE-MUSIC
19-0901382 19-10019 100 E ROBINS ST 2019-09-08 22:39:46.140 SUSPICIOUS PERSON
19-0901381 203 WILLOW ST 2019-09-08 22:36:35.820 CHECKING BUILDING
19-0901380 260 SALEM RD 2019-09-08 22:27:53.000 CHECKING VEHICLE
19-0901379 19-10017 375 MONROE ST 2019-09-08 22:15:53.477 DOMESTIC DISTURBANCE
19-0901378 2425 EIGHTEEN LP 2019-09-08 22:12:31.120 HARASSING COMMUNICATIONS
19-0901377 2500 OLD MORRILTON HWY 2019-09-08 22:02:15.520 TRAFFIC PROBLEM-CONTROL
19-0901376 19-10016 102 OAK ST 2019-09-08 21:43:56.717 FORGERY
19-0901375 19-10018 401 2ND ST 2019-09-08 21:41:44.310 BURGLARY
19-0901374 475 ROBINS ST 2019-09-08 21:34:31.383 HARASSING COMMUNICATIONS
19-0901372 19-10015 25 BERNARD DR 2019-09-08 21:07:09.533 SUSPICIOUS PERSON
19-0901371 475 ROBINS ST 2019-09-08 21:03:58.140 LOUD NOISE-MUSIC
19-0901370 880 TURNER TRL 2019-09-08 20:57:02.307 ABANDONED VEHICLE
19-0901369 19-10014 1000 MORNINGSIDE DR 2019-09-08 20:55:23.213 CHECKING VEHICLE
19-0901368 905 E OAK ST 2019-09-08 20:11:08.353 ACCIDENT - HIT AND RUN
19-0901367 19-10012 2401 CHRISTINA LN 2019-09-08 20:04:30.567 ABUSE
19-0901366 19-10011 955 E OAK ST 2019-09-08 19:59:43.313 CRIMINAL MISCHIEF
19-0901364 301 DONAGHEY AV 2019-09-08 19:46:42.363 AGENCY ASSIST
19-0901363 19-10010 201 SKYLINE DR 2019-09-08 19:33:09.317 ACCIDENT - PROPERTY DAMAGE
19-0901360 19-10009 1305 E OAK ST 2019-09-08 19:04:43.110 DOMESTIC DISTURBANCE
19-0901357 645 MILAM DR 2019-09-08 18:56:43.743 LOUD NOISE-MUSIC
19-0901356 1402 HARKRIDER ST 2019-09-08 18:29:22.987 ATTEMPT TO CONTACT
19-0901355 2905 PEBBLE BEACH DR 2019-09-08 18:28:34.753 CHECK ON THE WELFARE
19-0901354 19-10008 1150 S AMITY RD 2019-09-08 18:20:53.947 INTERFERENCE WITH CUSTODY
19-0901353 2325 DAVE WARD DR 2019-09-08 18:06:18.677 RECKLESS DRIVER
19-0901352 1525 HARDY ST 2019-09-08 18:01:20.947 ATTEMPT TO CONTACT
19-0901351 19-10007 1155 SKYLINE DR 2019-09-08 17:57:47.863 ENDANGERING WELFARE OF MINOR
19-0901349 1720 JOHN BRYANT DR 2019-09-08 17:49:39.183 RECKLESS DRIVER
19-0901348 1360 TORREYSON ST 2019-09-08 17:38:55.653 RECKLESS DRIVER
19-0901346 475 ROBINS ST 2019-09-08 17:13:36.400 HARASSING COMMUNICATIONS
19-0901345 19-10005 2200 WASHINGTON AV 2019-09-08 17:13:13.087 DOMESTIC DISTURBANCE
19-0901343 19-10006 27 TIMBERLANE TRL 2019-09-08 17:00:46.480 BATTERY REPORT
19-0901342 1105 COUNTRY CLUB RD 2019-09-08 16:56:10.673 SUSPICIOUS VEHICLE
19-0901340 17 NORTHWOOD DR 2019-09-08 16:49:03.107 ATTEMPT TO CONTACT
19-0901339 550 SKYLINE DR 2019-09-08 16:39:51.670 CHECK ON THE WELFARE
19-0901338 1905 RICH SMITH LN 2019-09-08 16:35:27.160 TRESPASSING
19-0901334 19-10003 4631 QUAIL RUN CIR 2019-09-08 15:45:35.130 ACCIDENT - PROPERTY DAMAGE
19-0901329 1100 E DAVE WARD DR 2019-09-08 14:55:05.093 CHECK ON THE WELFARE
19-0901327 17 NORTHWOOD DR 2019-09-08 14:51:41.590 TERRORISTIC THREATENING
19-0901326 2410 O'BRYANT ST 2019-09-08 14:46:29.390 ATTEMPT TO CONTACT
19-0901325 800 PADGETT RD 2019-09-08 14:44:27.610 CRIMINAL MISCHIEF
19-0901324 19-10002 1105 SKYLINE DR 2019-09-08 14:28:07.143 FELONY WARRANT SERVICE
19-0901323 415 OAK ST 2019-09-08 14:25:29.997 INTOXICATED DRIVER
19-0901322 1325 OLD MORRILTON HWY 2019-09-08 14:21:19.870 ENDANGERING WELFARE OF MINOR
19-0901320 1055 DAVE WARD DR 2019-09-08 13:51:25.427 CHECK ON THE WELFARE
19-0901319 19-10001 823 OAK ST 2019-09-08 13:50:34.240 RECKLESS DRIVER
19-0901318 1615 WESTLAKE DR 2019-09-08 13:48:01.920 ATTEMPT TO CONTACT
19-0901317 1501 HOGAN LN 2019-09-08 13:47:36.460 SUPPLEMENT REPORT CALL
19-0901315 2019-09-08 13:18:24.700 CIVIL MATTER
19-0901312 2510 PRINCE ST 2019-09-08 12:58:15.427 CHECKING VEHICLE
19-0901310 19-09999 4101 TYLER ST 2019-09-08 12:45:40.793 ACCIDENT - PROPERTY DAMAGE
19-0901306 19-10000 526 DAVIS ST 2019-09-08 12:24:09.563 CHECK ON THE WELFARE
19-0901305 1214 HOGAN LN 2019-09-08 12:18:44.383 ALARM
19-0901302 600 SKYLINE DR 2019-09-08 11:21:02.283 CHECKING PERSON
19-0901301 1105 SKYLINE DR 2019-09-08 11:15:08.693 ATTEMPT TO CONTACT
19-0901299 1905 RICH SMITH LN 2019-09-08 11:12:15.607 SUSPICIOUS PERSON
19-0901298 1835 TYLER ST 2019-09-08 11:10:36.753 CIVIL STAND BY
19-0901297 855 SALEM RD 2019-09-08 10:55:06.837 SUPPLEMENT REPORT CALL
19-0901295 19-09996 1960 TORREYSON ST 2019-09-08 10:29:27.923 CHECKING VEHICLE
19-0901292 1750 VILLAGE COMMONS DR 2019-09-08 09:39:50.827 LOUD NOISE-MUSIC
19-0901291 1814 HOGAN LN 2019-09-08 09:39:36.987 SUPPLEMENT REPORT CALL
19-0901290 40 RICHLAND HILLS DR 2019-09-08 09:23:21.120 SUSPICIOUS PERSON
19-0901289 2050 DAVE WARD DR 2019-09-08 09:16:25.157 UNKNOWN TROUBLE
19-0901288 2590 MORSE DR 2019-09-08 08:56:15.127 ALARM
19-0901287 1405 LINCOLN ST 2019-09-08 08:47:42.537 ALARM
19-0901286 1611 E OAK ST 2019-09-08 08:42:22.687 PURSUIT DRILL
19-0901284 19-09995 475 ROBINS ST 2019-09-08 08:06:57.613 THEFT OF PROPERTY
19-0901282 2125 HARKRIDER ST 2019-09-08 07:41:11.637 CHECKING PERSON
19-0901281 19-09994 1915 S DONAGHEY AV 2019-09-08 07:16:06.897 ACCIDENT - PROPERTY DAMAGE
19-0901280 2465 SANDERS ST 2019-09-08 06:29:43.733 INTOXICATED DRIVER
19-0901279 2100 DAVE WARD DR 2019-09-08 06:27:37.420 CHECK ON THE WELFARE
19-0901278 1101 FENDLEY DR 2019-09-08 06:21:29.700 ALARM
19-0901276 2475 SANDERS ST 2019-09-08 06:08:09.740 INTOXICATED PERSON
19-0901275 275 HELEN ST 2019-09-08 04:57:21.147 CHECK ON THE WELFARE
19-0901273 610 DONAGHEY AV 2019-09-08 04:16:56.667 SHOTS FIRED
19-0901272 1001 FRONT ST 2019-09-08 03:59:49.790 CHECKING VEHICLE
19-0901268 875 GRANITE LN 2019-09-08 03:08:50.200 REPOSSESSION
19-0901267 2420 BROADVIEW AV 2019-09-08 02:54:39.470 CHECKING VEHICLE
19-0901266 815 E OAK ST 2019-09-08 02:53:28.693 CHECKING VEHICLE
19-0901265 724 OAK ST 2019-09-08 02:50:27.433 CHECKING VEHICLE
19-0901264 217 S CENTER ST 2019-09-08 02:49:07.477 ATTEMPT TO CONTACT
19-0901262 700 POLK ST 2019-09-08 02:38:20.890 CHECKING PERSON
19-0901260 2104 HARKRIDER ST 2019-09-08 02:28:19.480 CHECKING VEHICLE
19-0901259 2360 SANDERS ST 2019-09-08 01:51:01.693 SUPPLEMENT REPORT CALL
19-0901258 19-09992 1000 MORNINGSIDE DR 2019-09-08 01:45:37.340 CHECKING PERSON
19-0901257 19-09991 812 CHESTNUT ST 2019-09-08 01:38:23.720 FIGHT
19-0901256 510 S MITCHELL ST 2019-09-08 01:20:50.400 SUSPICIOUS PERSON
19-0901255 1775 OLD MORRILTON HWY 2019-09-08 01:19:30.127 ATTEMPT TO CONTACT
19-0901254 2400 MARKET PLAZA DR 2019-09-08 01:11:52.120 SUSPICIOUS PERSON
19-0901253 2400 MARKET PLAZA DR 2019-09-08 00:51:35.773 FIGHT
19-0901251 19-09987 27 TIMBERLANE TRL 2019-09-08 00:47:17.167 FOUND PROPERTY
19-0901250 4645 RALEIGH DR 2019-09-08 00:47:10.260 PROWLER
19-0901249 1621 E OAK ST 2019-09-08 00:43:18.257 ALARM
19-0901247 19-09989 2360 SANDERS ST 2019-09-08 00:26:03.310 THEFT OF PROPERTY
19-0901246 293 PICKWICKET DR 2019-09-08 00:15:45.590 UNKNOWN TROUBLE
19-0901245 5099 DAVE WARD DR 2019-09-08 00:08:06.193 DOMESTIC DISTURBANCE
19-0901244 2415 WASHINGTON AV 2019-09-08 00:05:48.280 LOUD NOISE-MUSIC
19-0901242 27 TIMBERLANE TRL 2019-09-08 00:02:53.423 DISTURBANCE
19-0901241 2400 PRINCE ST 2019-09-07 23:50:25.797 CHECKING VEHICLE
19-0901240 1814 HOGAN LN 2019-09-07 23:43:10.590 ATTEMPT TO CONTACT
19-0901237 1701 SALEM RD 2019-09-07 23:30:56.273 STALLED VEHICLE
19-0901236 3900 DAVE WARD DR 2019-09-07 23:28:47.760 CHECKING PERSON
19-0901234 801 ELSINGER BLVD 2019-09-07 23:24:18.807 RECKLESS DRIVER
19-0901232 25 MEADOWBROOK DR 2019-09-07 23:19:26.360 FIGHT
19-0901229 19-09986 3900 DAVE WARD DR 2019-09-07 22:53:53.627 LOST-STOLEN LICENSE PLATE
19-0901228 1622 SCOTT ST 2019-09-07 22:52:33.777 CHECK ON THE WELFARE
19-0901227 1050 SPENCER ST 2019-09-07 22:48:29.100 ATTEMPT TO CONTACT
19-0901226 501 1ST ST 2019-09-07 22:40:31.793 DOMESTIC DISTURBANCE
19-0901225 611 1ST ST 2019-09-07 22:39:58.380 DOMESTIC DISTURBANCE
19-0901224 200 S HARKRIDER DR 2019-09-07 22:37:17.483 ALARM
19-0901223 25 WOODLAWN DR 2019-09-07 22:30:15.767 DOMESTIC DISTURBANCE
19-0901222 19-09985 5200 JOHN W. ALLISON RD 2019-09-07 22:20:36.020 CHECKING VEHICLE
19-0901221 831 NUTTERS CHAPEL RD 2019-09-07 22:19:22.223 CIVIL MATTER
19-0901217 475 ROBINS ST 2019-09-07 22:07:44.630 LOUD NOISE-MUSIC
19-0901216 313 OLIVER ST 2019-09-07 22:02:10.623 SUSPICIOUS VEHICLE
19-0901215 799 S HOGAN LN 2019-09-07 22:00:23.140 RECKLESS DRIVER
19-0901212 835 S DONAGHEY AV 2019-09-07 21:49:24.117 VEHICLE TOW
19-0901210 3100 IRBY DR 2019-09-07 21:40:57.253 RECKLESS DRIVER
19-0901209 1985 RICH SMITH LN 2019-09-07 21:35:30.707 DISTURBANCE
19-0901208 905 SKYLINE DR 2019-09-07 21:31:49.580 CHECKING VEHICLE
19-0901207 1525 CLIFTON ST 2019-09-07 21:31:42.127 DOMESTIC DISTURBANCE
19-0901206 19-09983 1025 S AMITY RD 2019-09-07 21:28:59.120 ACCIDENT - PROPERTY DAMAGE
19-0901204 601 DAVE WARD DR 2019-09-07 21:22:02.303 STALLED VEHICLE
19-0901203 375 E OAK ST 2019-09-07 21:19:08.313 SUSPICIOUS PERSON
19-0901201 19-09984 163 FARRIS RD 2019-09-07 21:16:31.983 CHECKING PERSON
19-0901200 1224 JERSEY ST 2019-09-07 21:09:02.700 HARASSING COMMUNICATIONS
19-0901199 19-09982 1500 HARKRIDER ST 2019-09-07 21:06:31.817 ACCIDENT - PRIVATE PROPERTY
19-0901198 1008 E OAK ST 2019-09-07 20:46:51.737 ALARM
19-0901193 19-09981 2050 DAVE WARD DR 2019-09-07 20:26:23.987 ACCIDENT - PRIVATE PROPERTY
19-0901192 3900 DAVE WARD DR 2019-09-07 20:20:29.080 TRESPASSING
19-0901191 1118 GUM ST 2019-09-07 20:18:19.247 SUPPLEMENT REPORT CALL
19-0901190 1300 GRANDVIEW HEIGHTS DR 2019-09-07 20:15:26.707 CHECKING VEHICLE
19-0901189 1900 TYLER ST 2019-09-07 20:07:32.063 HARASSMENT
19-0901186 19-09979 1900 TYLER ST 2019-09-07 19:34:43.740 TERRORISTIC THREATENING
19-0901184 1900 ERBACH ST 2019-09-07 19:26:35.523 LOST CHILD-FOUND CHILD
19-0901183 1105 PRAIRIE ST 2019-09-07 19:21:46.077 CITIZEN ASSIST
19-0901176 2107 DUNCAN ST 2019-09-07 18:52:39.410 ATTEMPT TO CONTACT
19-0901175 674 ELSINGER BLVD 2019-09-07 18:42:13.490 ENDANGERING WELFARE OF MINOR
19-0901173 19-09977 1155 SKYLINE DR 2019-09-07 18:31:03.577 SHOPLIFTING
19-0901172 1620 MIDDLE RD 2019-09-07 18:24:24.617 CIVIL STAND BY
19-0901171 19-09976 1200 E DAVE WARD DR 2019-09-07 18:20:28.893 ACCIDENT - PROPERTY DAMAGE
19-0901169 813 2ND ST 2019-09-07 18:09:17.577 TRESPASSING
19-0901168 855 SALEM RD 2019-09-07 18:08:53.650 THEFT OF PROPERTY
19-0901167 2015 RICH SMITH LN 2019-09-07 18:07:15.743 CIVIL MATTER
19-0901166 255 FARRIS RD 2019-09-07 18:05:52.583 ALARM
19-0901163 1050 NEAL ST 2019-09-07 17:58:03.653 DISTURBANCE
19-0901162 19-09978 2051 HARKRIDER ST 2019-09-07 17:27:53.183 FORGERY
19-0901161 2019-09-07 17:26:37.660 ATTEMPT TO CONTACT
19-0901158 2080 BROADVIEW AV 2019-09-07 16:52:04.510 ATTEMPT TO CONTACT
19-0901155 800 PADGETT RD 2019-09-07 16:22:14.600 RECKLESS DRIVER
19-0901154 1814 HOGAN LN 2019-09-07 16:14:28.853 SUPPLEMENT REPORT CALL
19-0901153 19-09974 2015 RICH SMITH LN 2019-09-07 16:01:31.847 AGENCY ASSIST
19-0901151 2019-09-07 15:48:24.757 ATTEMPT TO CONTACT
19-0901149 1118 GUM ST 2019-09-07 15:30:15.317 SUPPLEMENT REPORT CALL
19-0901146 19-09973 855 SALEM RD 2019-09-07 15:19:13.590 ACCIDENT - PRIVATE PROPERTY
19-0901145 2475 SANDERS ST 2019-09-07 15:14:46.140 CIVIL STAND BY
19-0901144 1405 S DONAGHEY AV 2019-09-07 15:03:57.273 ATTEMPT TO CONTACT
19-0901143 450 SKYLINE DR 2019-09-07 14:49:45.397 SUSPICIOUS VEHICLE
19-0901140 802 FRONT ST 2019-09-07 14:12:38.973 ATTEMPT TO CONTACT
19-0901138 19-09972 545 E DAVE WARD DR 2019-09-07 14:05:48.500 THEFT OF PROPERTY
19-0901135 25 MIDDLE RD 2019-09-07 13:53:24.037 ALARM
19-0901134 2500 DAVE WARD DR 2019-09-07 13:49:21.107 ATTEMPT TO CONTACT
19-0901131 19-09969 500 OAK ST 2019-09-07 13:15:44.520 ACCIDENT - HIT AND RUN
19-0901129 650 SKYLINE DR 2019-09-07 13:02:23.967 ATTEMPT TO CONTACT
19-0901128 2570 HARBELLE DR 2019-09-07 12:53:57.753 ALARM
19-0901124 19-09968 1200 E DAVE WARD DR 2019-09-07 12:30:43.013 ACCIDENT - PROPERTY DAMAGE
19-0901123 695 EXCHANGE AV 2019-09-07 12:27:27.003 ALARM
19-0901122 1422 E OAK ST 2019-09-07 12:24:29.017 VEHICLE TOW
19-0901116 19-09966 513 3RD AV 2019-09-07 11:13:22.720 BATTERY REPORT
19-0901114 475 ROBINS ST 2019-09-07 11:01:23.617 CIVIL STAND BY
19-0901113 19-09965 2425 SANDERS ST 2019-09-07 10:58:57.420 THEFT OF PROPERTY
19-0901112 2050 DAVE WARD DR 2019-09-07 10:56:41.567 ATTEMPT TO CONTACT
19-0901111 19-09962 800 WALNUT ST 2019-09-07 10:54:40.727 DOMESTIC DISTURBANCE
19-0901108 475 ROBINS ST 2019-09-07 10:46:44.570 SERVING SUBPOENA
19-0901105 19-09961 1155 SKYLINE DR 2019-09-07 09:53:28.003 DOMESTIC DISTURBANCE
19-0901101 2730 DAVE WARD DR 2019-09-07 09:26:20.600 ATTEMPT TO CONTACT
19-0901098 1025 E SIEBENMORGEN RD 2019-09-07 08:51:44.253 CHECK ON THE WELFARE
19-0901097 867 FENDLEY DR 2019-09-07 08:11:03.927 REPOSSESSION
19-0901096 1002 E OAK ST 2019-09-07 08:03:01.953 TRESPASSING
19-0901094 1499 WEST PLAINS DR 2019-09-07 07:46:11.727 PARKING VIOLATION
19-0901093 19-09959 3430 IRBY DR 2019-09-07 07:24:07.223 FOUND PROPERTY
19-0901092 19-09958 1121 DAVIS ST 2019-09-07 07:21:31.380 ACCIDENT - PROPERTY DAMAGE
19-0901090 101 OAK ST 2019-09-07 06:52:44.813 ABANDONED VEHICLE
19-0901089 19-09957 1814 HOGAN LN 2019-09-07 06:42:30.883 LOST-STOLEN LICENSE PLATE
19-0901088 1012 E OAK ST 2019-09-07 06:40:31.887 ALARM
19-0901087 19-09956 850 DUWAYNE LN 2019-09-07 06:39:13.157 RUNAWAY
19-0901085 19-09955 1050 SPENCER ST 2019-09-07 06:03:52.710 CHECK ON THE WELFARE
19-0901084 955 SOUTH GERMAN LN 2019-09-07 05:52:54.493 SUSPICIOUS VEHICLE
19-0901083 755 ELSINGER BLVD 2019-09-07 04:57:43.933 ALARM
19-0901082 2300 PRINCE ST 2019-09-07 04:49:28.800 CHECKING PERSON
19-0901081 2310 ROBINSON AV 2019-09-07 04:42:55.933 CHECKING VEHICLE
19-0901080 1115 COLLEGE AV 2019-09-07 04:38:59.050 AUDIBLE ALARM
19-0901078 410 6TH ST 2019-09-07 04:02:23.777 SUSPICIOUS ACTIVITY
19-0901076 3100 IRBY DR 2019-09-07 03:30:10.187 LOUD NOISE-MUSIC
19-0901074 1355 EXCHANGE AV 2019-09-07 03:01:22.383 ALARM
19-0901073 1213 COLLIER DR 2019-09-07 02:48:43.830 BREAKING OR ENTERING
19-0901070 2302 COLLEGE AV 2019-09-07 02:34:27.527 AGENCY ASSIST
19-0901068 20 KINLEY DR 2019-09-07 02:13:07.757 CHECKING VEHICLE
19-0901067 19-10038 500 SOUTH GERMAN LN 2019-09-07 02:05:01.957 MISDEMEANOR WARRANT SERVICE
19-0901066 375 E OAK ST 2019-09-07 02:04:07.527 THEFT OF PROPERTY
19-0901065 350 GRANDVIEW HEIGHTS DR 2019-09-07 01:54:51.113 CHECKING VEHICLE
19-0901063 19-09953 1409 BRUCE ST 2019-09-07 01:38:18.907 THEFT OF PROPERTY
19-0901059 2418 COLLEGE AV 2019-09-07 00:53:44.937 CHECK ON THE WELFARE
19-0901058 505 OAK ST 2019-09-07 00:46:55.487 ALARM
19-0901056 5 CAMILLA LN 2019-09-07 00:07:58.840 DOMESTIC DISTURBANCE
Call Number Case Number Address Call Time Incident Type

General Contacts

POLICE HEADQUARTERS
1105 Prairie Street
Conway, AR 72032

Conway Police Department


  911 (EMERGENCIES ONLY)

  501.450.6120 (non-emergency)

ANONYMOUS TIPS
 Leave a message at 501.450.6135
 Text CONWAY and your tip to 274637 (CRIMES) Click for an Example

   

City of Conway

We, the members of the Conway Police Department, are committed to protecting and serving the citizens of Conway, Arkansas. That is our highest calling, as we pledge to join hands with others in carrying out our sworn duty to uphold the law.

Chief Jody Spradlin

Latest Tweets